Time,TemperatureF,DewpointF,PressureIn,WindDirection,WindDirectionDegrees,WindSpeedMPH,WindSpeedGustMPH,Humidity,HourlyPrecipIn,Conditions,Clouds,dailyrainin,SolarRadiationWatts/m^2,SoftwareType,DateUTC
2013-02-18 00:00:00,47.3,44.8,30.13,SE,126,0.0,0.0,91,0.00,,---,0.00,0.00,VWS V14.01,2013-02-18 06:00:00,
2013-02-18 00:01:00,47.3,44.8,30.13,SE,126,0.0,0.0,91,0.00,,---,0.00,0.00,VWS V14.01,2013-02-18 06:01:00,
2013-02-18 00:02:00,47.3,44.8,30.13,SE,126,0.0,1.0,91,0.00,,---,0.00,0.00,VWS V14.01,2013-02-18 06:02:00,
2013-02-18 00:05:00,47.4,44.9,30.12,SE,126,0.0,1.0,91,0.00,,---,0.00,0.00,VWS V14.01,2013-02-18 06:05:00,
2013-02-18 00:07:00,47.4,44.9,30.12,SE,126,0.0,1.0,91,0.00,,---,0.00,0.00,VWS V14.01,2013-02-18 06:07:00,
2013-02-18 00:08:00,47.5,45.0,30.12,SE,126,0.0,1.0,91,0.00,,---,0.00,0.00,VWS V14.01,2013-02-18 06:08:00,
2013-02-18 00:09:00,47.6,45.1,30.12,SE,126,0.0,1.0,91,0.00,,---,0.00,0.00,VWS V14.01,2013-02-18 06:09:00,
2013-02-18 00:11:00,47.6,45.4,30.12,SE,126,0.0,1.0,92,0.00,,---,0.00,0.00,VWS V14.01,2013-02-18 06:11:00,
2013-02-18 00:12:00,47.7,45.5,30.12,SE,126,0.0,1.0,92,0.00,,---,0.00,0.00,VWS V14.01,2013-02-18 06:12:00,
2013-02-18 00:13:00,47.7,45.5,30.12,SE,126,0.0,1.0,92,0.00,,---,0.00,0.00,VWS V14.01,2013-02-18 06:13:00,
2013-02-18 00:14:00,47.8,45.6,30.12,SE,126,0.0,1.0,92,0.00,,---,0.00,0.00,VWS V14.01,2013-02-18 06:14:00,
2013-02-18 00:16:00,47.8,45.6,30.12,SE,126,0.0,2.0,92,0.00,,---,0.00,0.00,VWS V14.01,2013-02-18 06:16:00,
2013-02-18 00:18:00,47.9,45.7,30.12,SE,126,0.0,2.0,92,0.00,,---,0.00,0.00,VWS V14.01,2013-02-18 06:18:00,
2013-02-18 00:21:00,48.1,45.9,30.11,SE,126,0.0,2.0,92,0.00,,---,0.00,0.00,VWS V14.01,2013-02-18 06:21:00,
2013-02-18 00:22:00,48.1,45.9,30.12,SE,126,0.0,2.0,92,0.00,,---,0.00,0.00,VWS V14.01,2013-02-18 06:22:00,
2013-02-18 00:23:00,48.2,46.0,30.11,SE,126,0.0,2.0,92,0.00,,---,0.00,0.00,VWS V14.01,2013-02-18 06:23:00,
2013-02-18 00:24:00,48.2,46.0,30.11,SE,126,0.0,2.0,92,0.00,,---,0.00,0.00,VWS V14.01,2013-02-18 06:24:00,
2013-02-18 00:28:00,48.5,46.3,30.11,SE,126,0.0,2.0,92,0.00,,---,0.00,0.00,VWS V14.01,2013-02-18 06:28:00,
2013-02-18 00:30:00,48.6,46.7,30.11,South,173,1.0,3.0,93,0.00,,---,0.00,0.00,VWS V14.01,2013-02-18 06:30:00,
2013-02-18 00:33:00,48.9,47.0,30.11,SE,140,0.0,4.0,93,0.00,,---,0.00,0.00,VWS V14.01,2013-02-18 06:33:00,
2013-02-18 00:34:00,49.2,47.3,30.11,SE,139,0.0,4.0,93,0.00,,---,0.00,0.00,VWS V14.01,2013-02-18 06:34:00,
2013-02-18 00:37:00,49.5,47.6,30.11,SE,139,0.0,4.0,93,0.00,,---,0.00,0.00,VWS V14.01,2013-02-18 06:37:00,
2013-02-18 00:39:00,49.6,47.7,30.11,ESE,105,3.0,4.0,93,0.00,,---,0.00,0.00,VWS V14.01,2013-02-18 06:39:00,
2013-02-18 00:44:00,50.3,48.4,30.11,South,181,0.0,4.0,93,0.00,,---,0.00,0.00,VWS V14.01,2013-02-18 06:44:00,
2013-02-18 00:45:00,50.4,48.5,30.11,ESE,120,0.0,4.0,93,0.00,,---,0.00,0.00,VWS V14.01,2013-02-18 06:45:00,
2013-02-18 00:50:00,50.9,49.0,30.11,SE,133,1.0,4.0,93,0.00,,---,0.00,0.00,VWS V14.01,2013-02-18 06:50:00,
2013-02-18 00:51:00,51.0,49.0,30.11,SE,139,3.0,7.0,93,0.00,,---,0.00,0.00,VWS V14.01,2013-02-18 06:51:00,
2013-02-18 00:52:00,51.2,49.2,30.11,SSE,157,2.0,7.0,93,0.00,,---,0.00,0.00,VWS V14.01,2013-02-18 06:52:00,
2013-02-18 00:57:00,51.8,49.8,30.11,ESE,122,1.0,7.0,93,0.00,,---,0.00,0.00,VWS V14.01,2013-02-18 06:57:00,
2013-02-18 00:59:00,52.1,50.1,30.11,SSE,151,1.0,1.0,93,0.00,,---,0.00,0.00,VWS V14.01,2013-02-18 06:59:00,
2013-02-18 01:00:00,52.1,50.1,30.11,SSE,151,1.0,7.0,93,0.00,,---,0.00,0.00,VWS V14.01,2013-02-18 07:00:00,
2013-02-18 01:01:00,52.3,50.3,30.11,SE,136,2.0,3.0,93,0.00,,---,0.00,0.00,VWS V14.01,2013-02-18 07:01:00,
2013-02-18 01:02:00,52.4,50.4,30.11,SSE,161,3.0,8.0,93,0.00,,---,0.00,0.00,VWS V14.01,2013-02-18 07:02:00,
2013-02-18 01:07:00,52.9,50.6,30.11,SSE,151,2.0,8.0,92,0.00,,---,0.00,0.00,VWS V14.01,2013-02-18 07:07:00,
2013-02-18 01:08:00,53.1,50.8,30.11,SE,126,0.0,8.0,92,0.00,,---,0.00,0.00,VWS V14.01,2013-02-18 07:08:00,
2013-02-18 01:09:00,53.1,50.8,30.11,SE,126,0.0,8.0,92,0.00,,---,0.00,0.00,VWS V14.01,2013-02-18 07:09:00,
2013-02-18 01:13:00,53.4,50.8,30.10,SE,135,1.0,8.0,91,0.00,,---,0.00,0.00,VWS V14.01,2013-02-18 07:13:00,
2013-02-18 01:14:00,53.4,50.8,30.10,East,99,3.0,8.0,91,0.00,,---,0.00,0.00,VWS V14.01,2013-02-18 07:14:00,
2013-02-18 01:15:00,53.5,50.9,30.10,South,170,3.0,8.0,91,0.00,,---,0.00,0.00,VWS V14.01,2013-02-18 07:15:00,
2013-02-18 01:17:00,53.6,51.0,30.10,SSE,167,1.0,8.0,91,0.00,,---,0.00,0.00,VWS V14.01,2013-02-18 07:17:00,
2013-02-18 01:19:00,53.7,50.8,30.10,East,99,1.0,8.0,90,0.00,,---,0.00,0.00,VWS V14.01,2013-02-18 07:19:00,
2013-02-18 01:20:00,53.8,50.9,30.10,East,96,2.0,8.0,90,0.00,,---,0.00,0.00,VWS V14.01,2013-02-18 07:20:00,
2013-02-18 01:22:00,53.9,51.0,30.10,ESE,115,4.0,8.0,90,0.00,,---,0.00,0.00,VWS V14.01,2013-02-18 07:22:00,
2013-02-18 01:25:00,54.1,51.2,30.10,ESE,113,0.0,8.0,90,0.00,,---,0.00,0.00,VWS V14.01,2013-02-18 07:25:00,
2013-02-18 01:26:00,54.1,51.2,30.10,ESE,113,1.0,8.0,90,0.00,,---,0.00,0.00,VWS V14.01,2013-02-18 07:26:00,
2013-02-18 01:27:00,54.2,51.0,30.10,ESE,119,1.0,8.0,89,0.00,,---,0.00,0.00,VWS V14.01,2013-02-18 07:27:00,
2013-02-18 01:30:00,54.4,51.2,30.10,SE,126,0.0,2.0,89,0.00,,---,0.00,0.00,VWS V14.01,2013-02-18 07:30:00,
2013-02-18 01:31:00,54.4,51.2,30.10,SE,126,0.0,2.0,89,0.00,,---,0.00,0.00,VWS V14.01,2013-02-18 07:31:00,
2013-02-18 01:32:00,54.5,51.3,30.10,ESE,119,1.0,6.0,89,0.00,,---,0.00,0.00,VWS V14.01,2013-02-18 07:32:00,
2013-02-18 01:36:00,54.7,51.2,30.10,SE,130,2.0,6.0,88,0.00,,---,0.00,0.00,VWS V14.01,2013-02-18 07:36:00,
2013-02-18 01:38:00,54.7,51.2,30.10,ESE,119,2.0,6.0,88,0.00,,---,0.00,0.00,VWS V14.01,2013-02-18 07:38:00,
2013-02-18 01:39:00,54.8,51.3,30.09,SE,126,0.0,6.0,88,0.00,,---,0.00,0.00,VWS V14.01,2013-02-18 07:39:00,
2013-02-18 01:42:00,54.9,51.4,30.09,SE,146,0.0,6.0,88,0.00,,---,0.00,0.00,VWS V14.01,2013-02-18 07:42:00,
2013-02-18 01:44:00,54.9,51.4,30.09,SE,146,0.0,6.0,88,0.00,,---,0.00,0.00,VWS V14.01,2013-02-18 07:44:00,
2013-02-18 01:45:00,54.9,51.4,30.09,SE,141,7.0,7.0,88,0.00,,---,0.00,0.00,VWS V14.01,2013-02-18 07:45:00,
2013-02-18 01:47:00,55.1,51.3,30.09,SSE,161,1.0,7.0,87,0.00,,---,0.00,0.00,VWS V14.01,2013-02-18 07:47:00,
2013-02-18 01:51:00,55.2,51.4,30.09,ESE,106,1.0,7.0,87,0.00,,---,0.00,0.00,VWS V14.01,2013-02-18 07:51:00,
2013-02-18 01:52:00,55.2,51.4,30.09,SE,126,2.0,7.0,87,0.00,,---,0.00,0.00,VWS V14.01,2013-02-18 07:52:00,
2013-02-18 01:53:00,55.3,51.5,30.09,ESE,111,1.0,7.0,87,0.00,,---,0.00,0.00,VWS V14.01,2013-02-18 07:53:00,
2013-02-18 01:54:00,55.3,51.5,30.09,SSE,155,2.0,7.0,87,0.00,,---,0.00,0.00,VWS V14.01,2013-02-18 07:54:00,
2013-02-18 01:57:00,55.4,51.6,30.09,SSE,168,0.0,7.0,87,0.00,,---,0.00,0.00,VWS V14.01,2013-02-18 07:57:00,
2013-02-18 01:58:00,55.5,51.7,30.09,SE,126,0.0,7.0,87,0.00,,---,0.00,0.00,VWS V14.01,2013-02-18 07:58:00,
2013-02-18 02:00:00,55.5,51.7,30.09,SE,137,1.0,4.0,87,0.00,,---,0.00,0.00,VWS V14.01,2013-02-18 08:00:00,
2013-02-18 02:02:00,55.5,51.7,30.09,ESE,118,1.0,6.0,87,0.00,,---,0.00,0.00,VWS V14.01,2013-02-18 08:02:00,
2013-02-18 02:04:00,55.6,51.5,30.09,SE,129,3.0,6.0,86,0.00,,---,0.00,0.00,VWS V14.01,2013-02-18 08:04:00,
2013-02-18 02:05:00,55.6,51.5,30.09,SE,129,0.0,6.0,86,0.00,,---,0.00,0.00,VWS V14.01,2013-02-18 08:05:00,
2013-02-18 02:06:00,55.7,51.6,30.09,ESE,103,2.0,6.0,86,0.00,,---,0.00,0.00,VWS V14.01,2013-02-18 08:06:00,
2013-02-18 02:07:00,55.7,51.6,30.09,South,169,3.0,6.0,86,0.00,,---,0.00,0.00,VWS V14.01,2013-02-18 08:07:00,
2013-02-18 02:09:00,55.8,51.7,30.09,SE,143,4.0,6.0,86,0.00,,---,0.00,0.00,VWS V14.01,2013-02-18 08:09:00,
2013-02-18 02:10:00,55.8,51.7,30.08,ESE,120,0.0,6.0,86,0.00,,---,0.00,0.00,VWS V14.01,2013-02-18 08:10:00,
2013-02-18 02:11:00,55.8,51.7,30.08,ESE,120,0.0,6.0,86,0.00,,---,0.00,0.00,VWS V14.01,2013-02-18 08:11:00,
2013-02-18 02:12:00,55.8,51.7,30.08,SE,130,2.0,6.0,86,0.00,,---,0.00,0.00,VWS V14.01,2013-02-18 08:12:00,
2013-02-18 02:14:00,55.9,51.8,30.08,SE,138,1.0,6.0,86,0.00,,---,0.00,0.00,VWS V14.01,2013-02-18 08:14:00,
2013-02-18 02:15:00,55.9,51.8,30.08,SE,138,0.0,6.0,86,0.00,,---,0.00,0.00,VWS V14.01,2013-02-18 08:15:00,
2013-02-18 02:16:00,55.9,51.8,30.08,SE,138,0.0,6.0,86,0.00,,---,0.00,0.00,VWS V14.01,2013-02-18 08:16:00,
2013-02-18 02:18:00,56.0,51.9,30.08,ESE,117,4.0,6.0,86,0.00,,---,0.00,0.00,VWS V14.01,2013-02-18 08:18:00,
2013-02-18 02:19:00,56.0,51.9,30.08,SE,128,2.0,6.0,86,0.00,,---,0.00,0.00,VWS V14.01,2013-02-18 08:19:00,
2013-02-18 02:20:00,56.0,51.9,30.08,SSE,155,4.0,6.0,86,0.00,,---,0.00,0.00,VWS V14.01,2013-02-18 08:20:00,
2013-02-18 02:23:00,56.1,52.0,30.08,SE,134,0.0,6.0,86,0.00,,---,0.00,0.00,VWS V14.01,2013-02-18 08:23:00,
2013-02-18 02:24:00,56.1,52.0,30.08,SSE,152,2.0,6.0,86,0.00,,---,0.00,0.00,VWS V14.01,2013-02-18 08:24:00,
2013-02-18 02:26:00,56.1,52.0,30.08,East,90,1.0,6.0,86,0.00,,---,0.00,0.00,VWS V14.01,2013-02-18 08:26:00,
2013-02-18 02:29:00,56.2,52.1,30.07,SE,136,0.0,6.0,86,0.00,,---,0.00,0.00,VWS V14.01,2013-02-18 08:29:00,
2013-02-18 02:30:00,56.2,52.1,30.07,SE,136,0.0,6.0,86,0.00,,---,0.00,0.00,VWS V14.01,2013-02-18 08:30:00,
2013-02-18 02:31:00,56.2,52.1,30.07,South,175,2.0,4.0,86,0.00,,---,0.00,0.00,VWS V14.01,2013-02-18 08:31:00,
2013-02-18 02:32:00,56.2,52.1,30.07,South,175,0.0,4.0,86,0.00,,---,0.00,0.00,VWS V14.01,2013-02-18 08:32:00,
2013-02-18 02:34:00,56.2,52.1,30.07,ESE,122,0.0,4.0,86,0.00,,---,0.00,0.00,VWS V14.01,2013-02-18 08:34:00,
2013-02-18 02:35:00,56.3,52.2,30.07,ESE,122,1.0,4.0,86,0.00,,---,0.00,0.00,VWS V14.01,2013-02-18 08:35:00,
2013-02-18 02:37:00,56.3,52.2,30.07,SE,142,3.0,4.0,86,0.00,,---,0.00,0.00,VWS V14.01,2013-02-18 08:37:00,
2013-02-18 02:39:00,56.4,52.3,30.07,SSE,149,2.0,4.0,86,0.00,,---,0.00,0.00,VWS V14.01,2013-02-18 08:39:00,
2013-02-18 02:40:00,56.4,52.3,30.07,SSE,149,2.0,4.0,86,0.00,,---,0.00,0.00,VWS V14.01,2013-02-18 08:40:00,
2013-02-18 02:42:00,56.5,52.4,30.07,ESE,123,0.0,4.0,86,0.00,,---,0.00,0.00,VWS V14.01,2013-02-18 08:42:00,
2013-02-18 02:43:00,56.5,52.4,30.07,SSE,153,3.0,4.0,86,0.00,,---,0.00,0.00,VWS V14.01,2013-02-18 08:43:00,
2013-02-18 02:44:00,56.5,52.4,30.07,SE,130,0.0,4.0,86,0.00,,---,0.00,0.00,VWS V14.01,2013-02-18 08:44:00,
2013-02-18 02:46:00,56.6,52.5,30.07,SE,130,0.0,4.0,86,0.00,,---,0.00,0.00,VWS V14.01,2013-02-18 08:46:00,
2013-02-18 02:48:00,56.6,52.5,30.06,SE,130,0.0,4.0,86,0.00,,---,0.00,0.00,VWS V14.01,2013-02-18 08:48:00,
2013-02-18 02:49:00,56.7,52.6,30.06,SE,130,1.0,4.0,86,0.00,,---,0.00,0.00,VWS V14.01,2013-02-18 08:49:00,
2013-02-18 02:50:00,56.7,52.6,30.06,SE,130,3.0,4.0,86,0.00,,---,0.00,0.00,VWS V14.01,2013-02-18 08:50:00,
2013-02-18 02:51:00,56.7,52.6,30.06,SE,130,0.0,4.0,86,0.00,,---,0.00,0.00,VWS V14.01,2013-02-18 08:51:00,
2013-02-18 02:53:00,56.7,52.6,30.06,SE,130,1.0,4.0,86,0.00,,---,0.00,0.00,VWS V14.01,2013-02-18 08:53:00,
2013-02-18 02:54:00,56.7,52.6,30.06,SE,130,1.0,4.0,86,0.00,,---,0.00,0.00,VWS V14.01,2013-02-18 08:54:00,
2013-02-18 02:55:00,56.8,52.7,30.06,SSE,164,3.0,4.0,86,0.00,,---,0.00,0.00,VWS V14.01,2013-02-18 08:55:00,
2013-02-18 02:56:00,56.8,52.7,30.06,SSE,163,0.0,4.0,86,0.00,,---,0.00,0.00,VWS V14.01,2013-02-18 08:56:00,
2013-02-18 02:58:00,56.8,52.7,30.06,ESE,119,3.0,4.0,86,0.00,,---,0.00,0.00,VWS V14.01,2013-02-18 08:58:00,
2013-02-18 02:59:00,56.9,52.8,30.06,ESE,119,2.0,4.0,86,0.00,,---,0.00,0.00,VWS V14.01,2013-02-18 08:59:00,
2013-02-18 03:00:00,56.9,52.8,30.06,ESE,117,1.0,2.0,86,0.00,,---,0.00,0.00,VWS V14.01,2013-02-18 09:00:00,
2013-02-18 03:01:00,57.0,52.9,30.06,SE,129,1.0,3.0,86,0.00,,---,0.00,0.00,VWS V14.01,2013-02-18 09:01:00,
2013-02-18 03:03:00,57.0,52.9,30.06,SE,129,0.0,3.0,86,0.00,,---,0.00,0.00,VWS V14.01,2013-02-18 09:03:00,
2013-02-18 03:04:00,57.1,53.0,30.06,SE,129,1.0,3.0,86,0.00,,---,0.00,0.00,VWS V14.01,2013-02-18 09:04:00,
2013-02-18 03:05:00,57.1,52.6,30.06,SE,146,3.0,4.0,85,0.00,,---,0.00,0.00,VWS V14.01,2013-02-18 09:05:00,
2013-02-18 03:06:00,57.2,52.7,30.06,SSE,157,2.0,5.0,85,0.00,,---,0.00,0.00,VWS V14.01,2013-02-18 09:06:00,
2013-02-18 03:08:00,57.3,53.2,30.05,East,101,0.0,5.0,86,0.00,,---,0.00,0.00,VWS V14.01,2013-02-18 09:08:00,
2013-02-18 03:09:00,57.3,52.8,30.05,East,101,1.0,5.0,85,0.00,,---,0.00,0.00,VWS V14.01,2013-02-18 09:09:00,
2013-02-18 03:10:00,57.4,52.9,30.05,South,191,1.0,5.0,85,0.00,,---,0.00,0.00,VWS V14.01,2013-02-18 09:10:00,
2013-02-18 03:12:00,57.4,52.9,30.05,SSE,161,7.0,7.0,85,0.00,,---,0.00,0.00,VWS V14.01,2013-02-18 09:12:00,
2013-02-18 03:14:00,57.6,53.1,30.05,SE,136,1.0,7.0,85,0.00,,---,0.00,0.00,VWS V14.01,2013-02-18 09:14:00,
2013-02-18 03:16:00,57.7,53.2,30.05,SSE,160,4.0,7.0,85,0.00,,---,0.00,0.00,VWS V14.01,2013-02-18 09:16:00,
2013-02-18 03:17:00,57.8,53.3,30.05,South,169,2.0,9.0,85,0.00,,---,0.00,0.00,VWS V14.01,2013-02-18 09:17:00,
2013-02-18 03:19:00,58.0,53.5,30.05,East,101,1.0,9.0,85,0.00,,---,0.00,0.00,VWS V14.01,2013-02-18 09:19:00,
2013-02-18 03:22:00,58.1,53.6,30.05,SSE,149,3.0,9.0,85,0.00,,---,0.00,0.00,VWS V14.01,2013-02-18 09:22:00,
2013-02-18 03:23:00,58.1,53.3,30.05,SSE,149,1.0,9.0,84,0.00,,---,0.00,0.00,VWS V14.01,2013-02-18 09:23:00,
2013-02-18 03:24:00,58.1,53.3,30.05,SSE,149,1.0,9.0,84,0.00,,---,0.00,0.00,VWS V14.01,2013-02-18 09:24:00,
2013-02-18 03:25:00,58.1,53.3,30.04,SSE,149,1.0,9.0,84,0.00,,---,0.00,0.00,VWS V14.01,2013-02-18 09:25:00,
2013-02-18 03:27:00,58.2,53.4,30.05,SE,144,1.0,9.0,84,0.00,,---,0.00,0.00,VWS V14.01,2013-02-18 09:27:00,
2013-02-18 03:28:00,58.2,53.4,30.05,ESE,123,2.0,9.0,84,0.00,,---,0.00,0.00,VWS V14.01,2013-02-18 09:28:00,
2013-02-18 03:29:00,58.2,53.4,30.05,ESE,123,1.0,9.0,84,0.00,,---,0.00,0.00,VWS V14.01,2013-02-18 09:29:00,
2013-02-18 03:30:00,58.3,53.5,30.05,ESE,123,1.0,1.0,84,0.00,,---,0.00,0.00,VWS V14.01,2013-02-18 09:30:00,
2013-02-18 03:33:00,58.4,53.6,30.05,SSE,163,2.0,8.0,84,0.00,,---,0.00,0.00,VWS V14.01,2013-02-18 09:33:00,
2013-02-18 03:37:00,58.4,53.6,30.05,SSE,158,5.0,8.0,84,0.00,,---,0.00,0.00,VWS V14.01,2013-02-18 09:37:00,
2013-02-18 03:38:00,58.4,53.6,30.05,SSE,164,1.0,8.0,84,0.00,,---,0.00,0.00,VWS V14.01,2013-02-18 09:38:00,
2013-02-18 03:39:00,58.5,53.7,30.05,SSE,164,1.0,8.0,84,0.00,,---,0.00,0.00,VWS V14.01,2013-02-18 09:39:00,
2013-02-18 03:42:00,58.5,53.7,30.05,SSE,155,3.0,8.0,84,0.00,,---,0.00,0.00,VWS V14.01,2013-02-18 09:42:00,
2013-02-18 03:43:00,58.6,53.8,30.05,SE,136,4.0,8.0,84,0.00,,---,0.00,0.00,VWS V14.01,2013-02-18 09:43:00,
2013-02-18 03:44:00,58.6,53.8,30.05,ESE,119,2.0,8.0,84,0.00,,---,0.00,0.00,VWS V14.01,2013-02-18 09:44:00,
2013-02-18 03:47:00,58.6,53.5,30.05,ESE,119,1.0,8.0,83,0.00,,---,0.00,0.00,VWS V14.01,2013-02-18 09:47:00,
2013-02-18 03:48:00,58.7,53.6,30.05,ESE,119,2.0,8.0,83,0.00,,---,0.00,0.00,VWS V14.01,2013-02-18 09:48:00,
2013-02-18 03:50:00,58.7,53.6,30.05,SSE,155,0.0,8.0,83,0.00,,---,0.00,0.00,VWS V14.01,2013-02-18 09:50:00,
2013-02-18 03:53:00,58.7,53.6,30.04,South,175,0.0,8.0,83,0.00,,---,0.00,0.00,VWS V14.01,2013-02-18 09:53:00,
2013-02-18 03:54:00,58.7,53.6,30.04,SE,127,2.0,8.0,83,0.00,,---,0.00,0.00,VWS V14.01,2013-02-18 09:54:00,
2013-02-18 03:56:00,58.8,53.7,30.04,SE,132,5.0,8.0,83,0.00,,---,0.00,0.00,VWS V14.01,2013-02-18 09:56:00,
2013-02-18 03:57:00,58.8,53.7,30.04,SE,136,2.0,8.0,83,0.00,,---,0.00,0.00,VWS V14.01,2013-02-18 09:57:00,
2013-02-18 03:59:00,58.8,53.7,30.04,South,190,6.0,9.0,83,0.00,,---,0.00,0.00,VWS V14.01,2013-02-18 09:59:00,
2013-02-18 04:00:00,58.9,53.8,30.04,SE,136,6.0,9.0,83,0.00,,---,0.00,0.00,VWS V14.01,2013-02-18 10:00:00,
2013-02-18 04:01:00,58.9,53.8,30.04,South,182,4.0,9.0,83,0.00,,---,0.00,0.00,VWS V14.01,2013-02-18 10:01:00,
2013-02-18 04:02:00,59.0,54.2,30.04,SE,130,2.0,9.0,84,0.00,,---,0.00,0.00,VWS V14.01,2013-02-18 10:02:00,
2013-02-18 04:06:00,59.1,54.0,30.04,ESE,115,2.0,9.0,83,0.00,,---,0.00,0.00,VWS V14.01,2013-02-18 10:06:00,
2013-02-18 04:07:00,59.2,54.0,30.04,ESE,115,1.0,9.0,83,0.00,,---,0.00,0.00,VWS V14.01,2013-02-18 10:07:00,
2013-02-18 04:09:00,59.2,54.0,30.04,SE,142,6.0,9.0,83,0.00,,---,0.00,0.00,VWS V14.01,2013-02-18 10:09:00,
2013-02-18 04:11:00,59.3,54.2,30.04,ESE,113,3.0,9.0,83,0.00,,---,0.00,0.00,VWS V14.01,2013-02-18 10:11:00,
2013-02-18 04:13:00,59.4,54.2,30.04,SE,125,5.0,9.0,83,0.00,,---,0.00,0.00,VWS V14.01,2013-02-18 10:13:00,
2013-02-18 04:15:00,59.5,54.3,30.04,SE,137,4.0,9.0,83,0.00,,---,0.00,0.00,VWS V14.01,2013-02-18 10:15:00,
2013-02-18 04:16:00,59.5,54.3,30.04,SE,137,0.0,9.0,83,0.00,,---,0.00,0.00,VWS V14.01,2013-02-18 10:16:00,
2013-02-18 04:18:00,59.6,54.4,30.04,SE,137,2.0,9.0,83,0.00,,---,0.00,0.00,VWS V14.01,2013-02-18 10:18:00,
2013-02-18 04:19:00,59.6,54.4,30.04,SE,142,5.0,9.0,83,0.00,,---,0.00,0.00,VWS V14.01,2013-02-18 10:19:00,
2013-02-18 04:20:00,59.6,54.4,30.04,SSW,196,1.0,9.0,83,0.00,,---,0.00,0.00,VWS V14.01,2013-02-18 10:20:00,
2013-02-18 04:23:00,59.7,54.5,30.04,ESE,107,2.0,9.0,83,0.00,,---,0.00,0.00,VWS V14.01,2013-02-18 10:23:00,
2013-02-18 04:25:00,59.7,54.5,30.04,SSE,150,3.0,9.0,83,0.00,,---,0.00,0.00,VWS V14.01,2013-02-18 10:25:00,
2013-02-18 04:26:00,59.8,54.6,30.04,SSW,195,2.0,9.0,83,0.00,,---,0.00,0.00,VWS V14.01,2013-02-18 10:26:00,
2013-02-18 04:28:00,59.8,54.6,30.04,SSE,153,3.0,9.0,83,0.00,,---,0.00,0.00,VWS V14.01,2013-02-18 10:28:00,
2013-02-18 04:29:00,59.8,54.3,30.04,SSE,161,0.0,9.0,82,0.00,,---,0.00,0.00,VWS V14.01,2013-02-18 10:29:00,
2013-02-18 04:30:00,59.8,54.3,30.04,SSE,161,0.0,1.0,82,0.00,,---,0.00,0.00,VWS V14.01,2013-02-18 10:30:00,
2013-02-18 04:31:00,59.8,54.3,30.04,SSE,155,0.0,1.0,82,0.00,,---,0.00,0.00,VWS V14.01,2013-02-18 10:31:00,
2013-02-18 04:33:00,59.8,54.3,30.04,SSE,155,1.0,2.0,82,0.00,,---,0.00,0.00,VWS V14.01,2013-02-18 10:33:00,
2013-02-18 04:34:00,59.9,54.4,30.04,SSE,153,1.0,4.0,82,0.00,,---,0.00,0.00,VWS V14.01,2013-02-18 10:34:00,
2013-02-18 04:35:00,59.9,54.4,30.04,South,177,3.0,5.0,82,0.00,,---,0.00,0.00,VWS V14.01,2013-02-18 10:35:00,
2013-02-18 04:40:00,59.9,54.4,30.04,SSE,164,8.0,11.0,82,0.00,,---,0.00,0.00,VWS V14.01,2013-02-18 10:40:00,
2013-02-18 04:41:00,59.9,54.4,30.04,SSE,159,4.0,11.0,82,0.00,,---,0.00,0.00,VWS V14.01,2013-02-18 10:41:00,
2013-02-18 04:45:00,60.0,54.5,30.04,SSE,155,2.0,11.0,82,0.00,,---,0.00,0.00,VWS V14.01,2013-02-18 10:45:00,
2013-02-18 04:46:00,60.0,54.5,30.04,SSE,151,0.0,11.0,82,0.00,,---,0.00,0.00,VWS V14.01,2013-02-18 10:46:00,
2013-02-18 04:50:00,60.0,54.5,30.04,SE,144,4.0,11.0,82,0.00,,---,0.00,0.00,VWS V14.01,2013-02-18 10:50:00,
2013-02-18 04:52:00,60.1,54.6,30.04,ESE,111,2.0,11.0,82,0.00,,---,0.00,0.00,VWS V14.01,2013-02-18 10:52:00,
2013-02-18 04:55:00,60.1,54.6,30.04,South,175,1.0,11.0,82,0.00,,---,0.00,0.00,VWS V14.01,2013-02-18 10:55:00,
2013-02-18 04:58:00,60.2,54.7,30.04,SE,143,5.0,11.0,82,0.00,,---,0.00,0.00,VWS V14.01,2013-02-18 10:58:00,
2013-02-18 05:00:00,60.2,54.7,30.04,ENE,74,2.0,11.0,82,0.00,,---,0.00,0.00,VWS V14.01,2013-02-18 11:00:00,
2013-02-18 05:01:00,60.2,54.7,30.04,SE,130,5.0,5.0,82,0.00,,---,0.00,0.00,VWS V14.01,2013-02-18 11:01:00,
2013-02-18 05:04:00,60.3,54.8,30.04,SE,130,1.0,5.0,82,0.00,,---,0.00,0.00,VWS V14.01,2013-02-18 11:04:00,
2013-02-18 05:06:00,60.3,54.8,30.04,ESE,119,2.0,8.0,82,0.00,,---,0.00,0.00,VWS V14.01,2013-02-18 11:06:00,
2013-02-18 05:10:00,60.4,54.5,30.04,SE,128,3.0,8.0,81,0.00,,---,0.00,0.00,VWS V14.01,2013-02-18 11:10:00,
2013-02-18 05:12:00,60.5,54.7,30.04,South,173,0.0,8.0,81,0.00,,---,0.00,0.00,VWS V14.01,2013-02-18 11:12:00,
2013-02-18 05:17:00,60.5,54.7,30.04,SE,126,0.0,8.0,81,0.00,,---,0.00,0.00,VWS V14.01,2013-02-18 11:17:00,
2013-02-18 05:18:00,60.5,54.7,30.04,SE,126,2.0,8.0,81,0.00,,---,0.00,0.00,VWS V14.01,2013-02-18 11:18:00,
2013-02-18 05:20:00,60.5,54.7,30.03,SE,126,1.0,8.0,81,0.00,,---,0.00,0.00,VWS V14.01,2013-02-18 11:20:00,
2013-02-18 05:23:00,60.5,54.7,30.03,ESE,103,0.0,8.0,81,0.00,,---,0.00,0.00,VWS V14.01,2013-02-18 11:23:00,
2013-02-18 05:24:00,60.5,54.7,30.03,ESE,107,2.0,8.0,81,0.00,,---,0.00,0.00,VWS V14.01,2013-02-18 11:24:00,
2013-02-18 05:27:00,60.5,54.7,30.03,SSE,149,1.0,8.0,81,0.00,,---,0.00,0.00,VWS V14.01,2013-02-18 11:27:00,
2013-02-18 05:29:00,60.4,54.5,30.03,ESE,108,2.0,8.0,81,0.00,,---,0.00,0.00,VWS V14.01,2013-02-18 11:29:00,
2013-02-18 05:30:00,60.4,54.5,30.02,ESE,108,0.0,1.0,81,0.00,,---,0.00,0.00,VWS V14.01,2013-02-18 11:30:00,
2013-02-18 05:34:00,60.4,54.5,30.03,SE,135,1.0,5.0,81,0.00,,---,0.00,0.00,VWS V14.01,2013-02-18 11:34:00,
2013-02-18 05:35:00,60.4,54.5,30.03,SE,135,0.0,5.0,81,0.00,,---,0.00,0.00,VWS V14.01,2013-02-18 11:35:00,
2013-02-18 05:36:00,60.4,54.5,30.03,SSW,199,5.0,5.0,81,0.00,,---,0.00,0.00,VWS V14.01,2013-02-18 11:36:00,
2013-02-18 05:39:00,60.3,54.5,30.03,ESE,123,2.0,6.0,81,0.00,,---,0.00,0.00,VWS V14.01,2013-02-18 11:39:00,
2013-02-18 05:41:00,60.2,54.7,30.03,ESE,123,0.0,6.0,82,0.00,,---,0.00,0.00,VWS V14.01,2013-02-18 11:41:00,
2013-02-18 05:42:00,60.2,54.7,30.03,ESE,119,1.0,6.0,82,0.00,,---,0.00,0.00,VWS V14.01,2013-02-18 11:42:00,
2013-02-18 05:44:00,60.2,54.7,30.03,SE,128,3.0,6.0,82,0.00,,---,0.00,0.00,VWS V14.01,2013-02-18 11:44:00,
2013-02-18 05:48:00,60.2,54.7,30.03,SE,140,4.0,7.0,82,0.00,,---,0.00,0.00,VWS V14.01,2013-02-18 11:48:00,
2013-02-18 05:49:00,60.2,54.7,30.03,SE,134,0.0,7.0,82,0.00,,---,0.00,0.00,VWS V14.01,2013-02-18 11:49:00,
2013-02-18 05:50:00,60.2,54.7,30.03,SE,134,0.0,7.0,82,0.00,,---,0.00,0.00,VWS V14.01,2013-02-18 11:50:00,
2013-02-18 05:54:00,60.2,54.7,30.04,ESE,119,1.0,7.0,82,0.00,,---,0.00,0.00,VWS V14.01,2013-02-18 11:54:00,
2013-02-18 05:55:00,60.2,54.7,30.04,ESE,119,1.0,7.0,82,0.00,,---,0.00,0.00,VWS V14.01,2013-02-18 11:55:00,
2013-02-18 05:56:00,60.1,54.6,30.04,ESE,119,0.0,7.0,82,0.00,,---,0.00,0.00,VWS V14.01,2013-02-18 11:56:00,
2013-02-18 05:59:00,60.2,54.7,30.04,ESE,112,1.0,7.0,82,0.00,,---,0.00,0.00,VWS V14.01,2013-02-18 11:59:00,
2013-02-18 06:00:00,60.1,54.6,30.04,South,175,2.0,3.0,82,0.00,,---,0.00,0.00,VWS V14.01,2013-02-18 12:00:00,
2013-02-18 06:01:00,60.2,54.7,30.04,South,171,1.0,3.0,82,0.00,,---,0.00,0.00,VWS V14.01,2013-02-18 12:01:00,
2013-02-18 06:04:00,60.2,54.7,30.04,South,171,0.0,3.0,82,0.00,,---,0.00,0.00,VWS V14.01,2013-02-18 12:04:00,
2013-02-18 06:05:00,60.2,54.7,30.04,South,169,3.0,3.0,82,0.00,,---,0.00,0.00,VWS V14.01,2013-02-18 12:05:00,
2013-02-18 06:06:00,60.2,54.7,30.04,South,169,0.0,3.0,82,0.00,,---,0.00,0.00,VWS V14.01,2013-02-18 12:06:00,
2013-02-18 06:10:00,60.2,54.7,30.04,SE,135,2.0,3.0,82,0.00,,---,0.00,0.00,VWS V14.01,2013-02-18 12:10:00,
2013-02-18 06:12:00,60.1,54.6,30.04,SE,126,1.0,3.0,82,0.00,,---,0.00,0.00,VWS V14.01,2013-02-18 12:12:00,
2013-02-18 06:15:00,60.2,54.7,30.04,SSE,168,0.0,3.0,82,0.00,,---,0.00,0.00,VWS V14.01,2013-02-18 12:15:00,
2013-02-18 06:16:00,60.1,54.6,30.04,SSE,168,0.0,3.0,82,0.00,,---,0.00,0.00,VWS V14.01,2013-02-18 12:16:00,
2013-02-18 06:17:00,60.1,54.6,30.04,SSE,149,0.0,4.0,82,0.00,,---,0.00,0.00,VWS V14.01,2013-02-18 12:17:00,
2013-02-18 06:20:00,60.1,54.6,30.04,SSE,149,0.0,4.0,82,0.00,,---,0.00,0.00,VWS V14.01,2013-02-18 12:20:00,
2013-02-18 06:22:00,60.1,54.6,30.03,East,84,2.0,4.0,82,0.00,,---,0.00,0.00,VWS V14.01,2013-02-18 12:22:00,
2013-02-18 06:23:00,60.1,54.6,30.03,East,84,0.0,4.0,82,0.00,,---,0.00,0.00,VWS V14.01,2013-02-18 12:23:00,
2013-02-18 06:25:00,60.1,54.9,30.03,East,84,1.0,4.0,83,0.00,,---,0.00,0.00,VWS V14.01,2013-02-18 12:25:00,
2013-02-18 06:29:00,60.0,54.8,30.03,SE,142,3.0,4.0,83,0.00,,---,0.00,0.00,VWS V14.01,2013-02-18 12:29:00,
2013-02-18 06:30:00,60.0,54.8,30.03,SE,146,1.0,4.0,83,0.00,,---,0.00,0.00,VWS V14.01,2013-02-18 12:30:00,
2013-02-18 06:31:00,60.0,54.8,30.03,ESE,123,0.0,3.0,83,0.00,,---,0.00,0.00,VWS V14.01,2013-02-18 12:31:00,
2013-02-18 06:32:00,60.0,54.8,30.03,SE,140,2.0,3.0,83,0.00,,---,0.00,0.00,VWS V14.01,2013-02-18 12:32:00,
2013-02-18 06:36:00,59.9,54.7,30.03,SE,140,2.0,3.0,83,0.00,,---,0.00,0.00,VWS V14.01,2013-02-18 12:36:00,
2013-02-18 06:37:00,59.9,54.7,30.03,SE,140,0.0,3.0,83,0.00,,---,0.00,0.00,VWS V14.01,2013-02-18 12:37:00,
2013-02-18 06:42:00,59.9,55.1,30.03,SE,144,1.0,5.0,84,0.00,,---,0.00,0.00,VWS V14.01,2013-02-18 12:42:00,
2013-02-18 06:47:00,59.8,55.0,30.03,SSE,165,0.0,5.0,84,0.00,,---,0.00,0.00,VWS V14.01,2013-02-18 12:47:00,
2013-02-18 06:48:00,59.8,55.0,30.03,SSE,165,0.0,5.0,84,0.00,,---,0.00,0.00,VWS V14.01,2013-02-18 12:48:00,
2013-02-18 06:52:00,59.8,55.0,30.03,SSE,165,0.0,5.0,84,0.00,,---,0.00,0.00,VWS V14.01,2013-02-18 12:52:00,
2013-02-18 06:54:00,59.8,55.0,30.03,SSE,165,0.0,5.0,84,0.00,,---,0.00,0.00,VWS V14.01,2013-02-18 12:54:00,
2013-02-18 06:57:00,59.8,55.0,30.03,SSE,165,0.0,5.0,84,0.00,,---,0.00,0.00,VWS V14.01,2013-02-18 12:57:00,
2013-02-18 06:58:00,59.7,54.9,30.03,SSE,165,0.0,5.0,84,0.00,,---,0.00,0.00,VWS V14.01,2013-02-18 12:58:00,
2013-02-18 06:59:00,59.7,54.9,30.03,ESE,116,3.0,5.0,84,0.00,,---,0.00,0.00,VWS V14.01,2013-02-18 12:59:00,
2013-02-18 07:00:00,59.7,54.9,30.03,ESE,116,0.0,5.0,84,0.00,,---,0.00,0.00,VWS V14.01,2013-02-18 13:00:00,
2013-02-18 07:03:00,59.7,54.9,30.03,East,82,0.0,2.0,84,0.00,,---,0.00,0.00,VWS V14.01,2013-02-18 13:03:00,
2013-02-18 07:05:00,59.7,54.9,30.03,East,82,0.0,2.0,84,0.00,,---,0.00,5.00,VWS V14.01,2013-02-18 13:05:00,
2013-02-18 07:08:00,59.6,55.1,30.03,East,82,1.0,2.0,85,0.00,,---,0.00,7.00,VWS V14.01,2013-02-18 13:08:00,
2013-02-18 07:10:00,59.6,55.1,30.03,SSE,149,0.0,2.0,85,0.00,,---,0.00,9.00,VWS V14.01,2013-02-18 13:10:00,
2013-02-18 07:12:00,59.6,55.1,30.03,SSE,149,0.0,2.0,85,0.00,,---,0.00,9.00,VWS V14.01,2013-02-18 13:12:00,
2013-02-18 07:14:00,59.6,55.1,30.03,SSE,149,0.0,2.0,85,0.00,,---,0.00,11.00,VWS V14.01,2013-02-18 13:14:00,
2013-02-18 07:15:00,59.6,55.1,30.03,East,81,5.0,5.0,85,0.00,,---,0.00,12.00,VWS V14.01,2013-02-18 13:15:00,
2013-02-18 07:17:00,59.6,55.1,30.03,SE,146,1.0,5.0,85,0.00,,---,0.00,14.00,VWS V14.01,2013-02-18 13:17:00,
2013-02-18 07:19:00,59.6,55.4,30.03,SE,146,0.0,5.0,86,0.00,,---,0.00,16.00,VWS V14.01,2013-02-18 13:19:00,
2013-02-18 07:22:00,59.6,55.4,30.03,SSE,160,0.0,5.0,86,0.00,,---,0.00,16.00,VWS V14.01,2013-02-18 13:22:00,
2013-02-18 07:23:00,59.6,55.4,30.03,SSE,160,0.0,5.0,86,0.00,,---,0.00,16.00,VWS V14.01,2013-02-18 13:23:00,
2013-02-18 07:25:00,59.6,55.4,30.03,SSE,160,0.0,5.0,86,0.00,,---,0.00,18.00,VWS V14.01,2013-02-18 13:25:00,
2013-02-18 07:28:00,59.7,55.5,30.03,SE,138,0.0,5.0,86,0.00,,---,0.00,19.00,VWS V14.01,2013-02-18 13:28:00,
2013-02-18 07:30:00,59.7,55.5,30.03,SSE,150,1.0,1.0,86,0.00,,---,0.00,19.00,VWS V14.01,2013-02-18 13:30:00,
2013-02-18 07:33:00,59.8,55.6,30.03,SSE,148,0.0,2.0,86,0.00,,---,0.00,23.00,VWS V14.01,2013-02-18 13:33:00,
2013-02-18 07:34:00,59.7,55.5,30.03,SSE,148,0.0,2.0,86,0.00,,---,0.00,25.00,VWS V14.01,2013-02-18 13:34:00,
2013-02-18 07:35:00,59.8,55.6,30.03,SSE,148,0.0,2.0,86,0.00,,---,0.00,26.00,VWS V14.01,2013-02-18 13:35:00,
2013-02-18 07:39:00,59.8,55.6,30.03,SSE,148,0.0,2.0,86,0.00,,---,0.00,33.00,VWS V14.01,2013-02-18 13:39:00,
2013-02-18 07:40:00,59.8,55.6,30.03,SSE,148,0.0,2.0,86,0.00,,---,0.00,32.00,VWS V14.01,2013-02-18 13:40:00,
2013-02-18 07:44:00,59.9,55.7,30.03,SE,136,2.0,4.0,86,0.00,,---,0.00,37.00,VWS V14.01,2013-02-18 13:44:00,
2013-02-18 07:47:00,60.0,55.8,30.03,SE,136,0.0,4.0,86,0.00,,---,0.00,42.00,VWS V14.01,2013-02-18 13:47:00,
2013-02-18 07:49:00,60.0,56.1,30.03,South,175,2.0,4.0,87,0.00,,---,0.00,44.00,VWS V14.01,2013-02-18 13:49:00,
2013-02-18 07:50:00,60.0,55.8,30.03,South,175,0.0,4.0,86,0.00,,---,0.00,44.00,VWS V14.01,2013-02-18 13:50:00,
2013-02-18 07:52:00,60.1,55.9,30.03,South,175,0.0,4.0,86,0.00,,---,0.00,47.00,VWS V14.01,2013-02-18 13:52:00,
2013-02-18 07:54:00,60.2,56.0,30.03,SE,138,3.0,5.0,86,0.00,,---,0.00,54.00,VWS V14.01,2013-02-18 13:54:00,
2013-02-18 07:55:00,60.2,56.3,30.03,SE,134,0.0,5.0,87,0.00,,---,0.00,56.00,VWS V14.01,2013-02-18 13:55:00,
2013-02-18 07:57:00,60.3,56.4,30.03,SE,144,2.0,5.0,87,0.00,,---,0.00,60.00,VWS V14.01,2013-02-18 13:57:00,
2013-02-18 07:59:00,60.4,56.5,30.03,SSE,148,0.0,5.0,87,0.00,,---,0.00,63.00,VWS V14.01,2013-02-18 13:59:00,
2013-02-18 08:00:00,60.4,56.5,30.04,SSE,148,0.0,1.0,87,0.00,,---,0.00,65.00,VWS V14.01,2013-02-18 14:00:00,
2013-02-18 08:02:00,60.5,56.3,30.04,SE,130,0.0,3.0,86,0.00,,---,0.00,67.00,VWS V14.01,2013-02-18 14:02:00,
2013-02-18 08:05:00,60.5,56.6,30.04,SE,130,1.0,3.0,87,0.00,,---,0.00,63.00,VWS V14.01,2013-02-18 14:05:00,
2013-02-18 08:07:00,60.6,56.7,30.04,SE,136,1.0,3.0,87,0.00,,---,0.00,62.00,VWS V14.01,2013-02-18 14:07:00,
2013-02-18 08:10:00,60.8,56.6,30.05,SSE,167,2.0,5.0,86,0.00,,---,0.00,62.00,VWS V14.01,2013-02-18 14:10:00,
2013-02-18 08:11:00,60.8,56.6,30.05,SSE,164,4.0,5.0,86,0.00,,---,0.00,62.00,VWS V14.01,2013-02-18 14:11:00,
2013-02-18 08:13:00,60.8,56.6,30.05,SSE,162,1.0,5.0,86,0.00,,---,0.00,65.00,VWS V14.01,2013-02-18 14:13:00,
2013-02-18 08:16:00,61.0,56.8,30.04,SE,134,5.0,8.0,86,0.00,,---,0.00,77.00,VWS V14.01,2013-02-18 14:16:00,
2013-02-18 08:18:00,61.2,57.0,30.05,South,174,3.0,8.0,86,0.00,,---,0.00,81.00,VWS V14.01,2013-02-18 14:18:00,
2013-02-18 08:21:00,61.3,57.1,30.04,South,171,2.0,8.0,86,0.00,,---,0.00,81.00,VWS V14.01,2013-02-18 14:21:00,
2013-02-18 08:24:00,61.5,57.3,30.04,ESE,116,1.0,8.0,86,0.00,,---,0.00,91.00,VWS V14.01,2013-02-18 14:24:00,
2013-02-18 08:26:00,61.7,57.5,30.04,SE,134,1.0,8.0,86,0.00,,---,0.00,104.00,VWS V14.01,2013-02-18 14:26:00,
2013-02-18 08:29:00,61.8,57.6,30.04,SE,127,1.0,8.0,86,0.00,,---,0.00,114.00,VWS V14.01,2013-02-18 14:29:00,
2013-02-18 08:30:00,61.9,57.7,30.04,SE,132,3.0,3.0,86,0.00,,---,0.00,125.00,VWS V14.01,2013-02-18 14:30:00,
2013-02-18 08:31:00,61.9,57.7,30.04,SSE,148,2.0,3.0,86,0.00,,---,0.00,127.00,VWS V14.01,2013-02-18 14:31:00,
2013-02-18 08:34:00,62.1,57.5,30.04,SE,145,1.0,5.0,85,0.00,,---,0.00,141.00,VWS V14.01,2013-02-18 14:34:00,
2013-02-18 08:35:00,62.2,57.6,30.04,SE,145,1.0,5.0,85,0.00,,---,0.00,121.00,VWS V14.01,2013-02-18 14:35:00,
2013-02-18 08:37:00,62.3,57.7,30.05,ESE,123,9.0,9.0,85,0.00,,---,0.00,132.00,VWS V14.01,2013-02-18 14:37:00,
2013-02-18 08:39:00,62.5,57.9,30.04,South,182,2.0,9.0,85,0.00,,---,0.00,160.00,VWS V14.01,2013-02-18 14:39:00,
2013-02-18 08:42:00,62.9,58.0,30.05,SSE,155,2.0,10.0,84,0.00,,---,0.00,160.00,VWS V14.01,2013-02-18 14:42:00,
2013-02-18 08:45:00,63.8,58.5,30.04,South,176,5.0,10.0,83,0.00,,---,0.00,178.00,VWS V14.01,2013-02-18 14:45:00,
2013-02-18 08:47:00,64.2,58.6,30.04,ESE,117,2.0,10.0,82,0.00,,---,0.00,237.00,VWS V14.01,2013-02-18 14:47:00,
2013-02-18 08:48:00,64.4,58.8,30.05,SE,140,4.0,10.0,82,0.00,,---,0.00,176.00,VWS V14.01,2013-02-18 14:48:00,
2013-02-18 08:50:00,64.7,58.7,30.05,SE,125,4.0,10.0,81,0.00,,---,0.00,176.00,VWS V14.01,2013-02-18 14:50:00,
2013-02-18 08:53:00,65.0,58.7,30.05,SSE,155,4.0,10.0,80,0.00,,---,0.00,202.00,VWS V14.01,2013-02-18 14:53:00,
2013-02-18 08:55:00,65.2,58.9,30.05,SE,136,7.0,10.0,80,0.00,,---,0.00,209.00,VWS V14.01,2013-02-18 14:55:00,
2013-02-18 08:58:00,65.4,58.7,30.05,SSW,204,2.0,10.0,79,0.00,,---,0.00,149.00,VWS V14.01,2013-02-18 14:58:00,
2013-02-18 09:00:00,65.4,58.7,30.06,SSE,150,2.0,8.0,79,0.00,,---,0.00,260.00,VWS V14.01,2013-02-18 15:00:00,
2013-02-18 09:01:00,65.5,59.2,30.05,ESE,109,2.0,8.0,80,0.00,,---,0.00,260.00,VWS V14.01,2013-02-18 15:01:00,
2013-02-18 09:05:00,65.5,58.8,30.05,East,98,5.0,9.0,79,0.00,,---,0.00,107.00,VWS V14.01,2013-02-18 15:05:00,
2013-02-18 09:06:00,65.4,58.7,30.05,South,180,6.0,9.0,79,0.00,,---,0.00,114.00,VWS V14.01,2013-02-18 15:06:00,
2013-02-18 09:10:00,65.4,58.7,30.05,SSE,156,1.0,9.0,79,0.00,,---,0.00,257.00,VWS V14.01,2013-02-18 15:10:00,
2013-02-18 09:11:00,65.5,58.8,30.05,SW,236,4.0,9.0,79,0.00,,---,0.00,183.00,VWS V14.01,2013-02-18 15:11:00,
2013-02-18 09:12:00,65.5,58.8,30.05,South,175,2.0,9.0,79,0.00,,---,0.00,183.00,VWS V14.01,2013-02-18 15:12:00,
2013-02-18 09:15:00,65.7,58.7,30.05,SSE,155,3.0,10.0,78,0.00,,---,0.00,188.00,VWS V14.01,2013-02-18 15:15:00,
2013-02-18 09:17:00,65.8,59.1,30.05,SE,128,5.0,10.0,79,0.00,,---,0.00,188.00,VWS V14.01,2013-02-18 15:17:00,
2013-02-18 09:21:00,65.8,58.8,30.06,SSW,209,5.0,10.0,78,0.00,,---,0.00,86.00,VWS V14.01,2013-02-18 15:21:00,
2013-02-18 09:22:00,65.8,58.8,30.06,SSE,157,6.0,12.0,78,0.00,,---,0.00,90.00,VWS V14.01,2013-02-18 15:22:00,
2013-02-18 09:23:00,65.8,58.8,30.06,SE,144,5.0,12.0,78,0.00,,---,0.00,135.00,VWS V14.01,2013-02-18 15:23:00,
2013-02-18 09:26:00,65.8,58.8,30.06,SSE,152,5.0,12.0,78,0.00,,---,0.00,172.00,VWS V14.01,2013-02-18 15:26:00,
2013-02-18 09:27:00,65.8,58.8,30.06,SSE,165,4.0,12.0,78,0.00,,---,0.00,160.00,VWS V14.01,2013-02-18 15:27:00,
2013-02-18 09:28:00,65.8,59.1,30.06,SSE,150,6.0,12.0,79,0.00,,---,0.00,155.00,VWS V14.01,2013-02-18 15:28:00,
2013-02-18 09:30:00,65.9,59.2,30.06,SE,140,4.0,12.0,79,0.00,,---,0.00,179.00,VWS V14.01,2013-02-18 15:30:00,
2013-02-18 09:32:00,66.1,59.4,30.06,SE,130,1.0,4.0,79,0.00,,---,0.00,167.00,VWS V14.01,2013-02-18 15:32:00,
2013-02-18 09:33:00,66.1,59.0,30.06,SE,130,2.0,5.0,78,0.00,,---,0.00,165.00,VWS V14.01,2013-02-18 15:33:00,
2013-02-18 09:34:00,66.2,59.2,30.06,ESE,121,15.0,15.0,78,0.00,,---,0.00,174.00,VWS V14.01,2013-02-18 15:34:00,
2013-02-18 09:37:00,66.4,59.3,30.06,SE,139,7.0,15.0,78,0.00,,---,0.00,234.00,VWS V14.01,2013-02-18 15:37:00,
2013-02-18 09:38:00,66.5,59.4,30.06,SE,134,1.0,15.0,78,0.00,,---,0.00,234.00,VWS V14.01,2013-02-18 15:38:00,
2013-02-18 09:41:00,66.6,59.5,30.06,ESE,116,4.0,15.0,78,0.00,,---,0.00,144.00,VWS V14.01,2013-02-18 15:41:00,
2013-02-18 09:42:00,66.6,59.2,30.06,ESE,102,4.0,15.0,77,0.00,,---,0.00,151.00,VWS V14.01,2013-02-18 15:42:00,
2013-02-18 09:44:00,66.7,59.6,30.06,SSE,147,6.0,15.0,78,0.00,,---,0.00,179.00,VWS V14.01,2013-02-18 15:44:00,
2013-02-18 09:47:00,66.8,59.7,30.06,South,180,3.0,15.0,78,0.00,,---,0.00,230.00,VWS V14.01,2013-02-18 15:47:00,
2013-02-18 09:49:00,67.0,59.6,30.05,SSE,161,3.0,15.0,77,0.00,,---,0.00,200.00,VWS V14.01,2013-02-18 15:49:00,
2013-02-18 09:53:00,67.1,59.7,30.05,SSW,206,8.0,15.0,77,0.00,,---,0.00,178.00,VWS V14.01,2013-02-18 15:53:00,
2013-02-18 09:55:00,67.2,59.8,30.05,SSE,157,3.0,15.0,77,0.00,,---,0.00,214.00,VWS V14.01,2013-02-18 15:55:00,
2013-02-18 09:58:00,67.6,60.1,30.06,SE,124,6.0,15.0,77,0.00,,---,0.00,334.00,VWS V14.01,2013-02-18 15:58:00,
2013-02-18 09:59:00,67.6,60.1,30.05,SSE,164,3.0,15.0,77,0.00,,---,0.00,334.00,VWS V14.01,2013-02-18 15:59:00,
2013-02-18 10:00:00,67.7,59.9,30.05,South,182,2.0,15.0,76,0.00,,---,0.00,336.00,VWS V14.01,2013-02-18 16:00:00,
2013-02-18 10:03:00,68.1,60.3,30.05,SE,132,4.0,10.0,76,0.00,,---,0.00,163.00,VWS V14.01,2013-02-18 16:03:00,
2013-02-18 10:04:00,68.1,60.3,30.05,SE,144,7.0,11.0,76,0.00,,---,0.00,181.00,VWS V14.01,2013-02-18 16:04:00,
2013-02-18 10:09:00,67.9,59.7,30.05,SE,136,10.0,15.0,75,0.00,,---,0.00,195.00,VWS V14.01,2013-02-18 16:09:00,
2013-02-18 10:13:00,67.7,59.9,30.05,SSE,163,4.0,15.0,76,0.00,,---,0.00,264.00,VWS V14.01,2013-02-18 16:13:00,
2013-02-18 10:14:00,67.7,59.9,30.05,ESE,119,4.0,15.0,76,0.00,,---,0.00,237.00,VWS V14.01,2013-02-18 16:14:00,
2013-02-18 10:19:00,68.2,60.3,30.04,ESE,119,8.0,15.0,76,0.00,,---,0.00,251.00,VWS V14.01,2013-02-18 16:19:00,
2013-02-18 10:20:00,68.3,60.1,30.04,South,173,7.0,15.0,75,0.00,,---,0.00,223.00,VWS V14.01,2013-02-18 16:20:00,
2013-02-18 10:24:00,68.4,60.2,30.04,SE,144,2.0,15.0,75,0.00,,---,0.00,260.00,VWS V14.01,2013-02-18 16:24:00,
2013-02-18 10:25:00,68.6,60.4,30.04,SE,126,12.0,15.0,75,0.00,,---,0.00,188.00,VWS V14.01,2013-02-18 16:25:00,
2013-02-18 10:29:00,68.6,60.4,30.04,South,171,3.0,15.0,75,0.00,,---,0.00,271.00,VWS V14.01,2013-02-18 16:29:00,
2013-02-18 10:30:00,68.8,60.6,30.04,South,186,3.0,7.0,75,0.00,,---,0.00,330.00,VWS V14.01,2013-02-18 16:30:00,
2013-02-18 10:34:00,69.1,60.5,30.04,SSW,192,5.0,9.0,74,0.00,,---,0.00,221.00,VWS V14.01,2013-02-18 16:34:00,
2013-02-18 10:36:00,69.1,60.5,30.04,SSW,201,2.0,10.0,74,0.00,,---,0.00,179.00,VWS V14.01,2013-02-18 16:36:00,
2013-02-18 10:39:00,68.9,60.3,30.04,SE,125,3.0,10.0,74,0.00,,---,0.00,135.00,VWS V14.01,2013-02-18 16:39:00,
2013-02-18 10:41:00,68.9,60.3,30.04,South,186,3.0,10.0,74,0.00,,---,0.00,109.00,VWS V14.01,2013-02-18 16:41:00,
2013-02-18 10:44:00,68.8,60.2,30.04,SSW,202,4.0,12.0,74,0.00,,---,0.00,105.00,VWS V14.01,2013-02-18 16:44:00,
2013-02-18 10:46:00,68.5,59.9,30.04,SSE,153,3.0,12.0,74,0.00,,---,0.00,118.00,VWS V14.01,2013-02-18 16:46:00,
2013-02-18 10:50:00,68.5,60.3,30.04,SE,140,4.0,12.0,75,0.00,,---,0.00,135.00,VWS V14.01,2013-02-18 16:50:00,
2013-02-18 10:53:00,68.5,60.3,30.04,SE,124,5.0,12.0,75,0.00,,---,0.00,90.00,VWS V14.01,2013-02-18 16:53:00,
2013-02-18 10:55:00,68.4,60.2,30.04,SSE,149,3.0,12.0,75,0.00,,---,0.00,62.00,VWS V14.01,2013-02-18 16:55:00,
2013-02-18 10:59:00,68.3,60.1,30.04,SE,128,7.0,12.0,75,0.00,,---,0.00,74.00,VWS V14.01,2013-02-18 16:59:00,
2013-02-18 11:00:00,68.3,60.1,30.04,SE,141,1.0,12.0,75,0.00,,---,0.00,62.00,VWS V14.01,2013-02-18 17:00:00,
2013-02-18 11:01:00,68.2,60.0,30.05,SSE,157,6.0,14.0,75,0.00,,---,0.00,84.00,VWS V14.01,2013-02-18 17:01:00,
2013-02-18 11:04:00,68.2,60.3,30.04,SSE,152,10.0,14.0,76,0.00,,---,0.00,123.00,VWS V14.01,2013-02-18 17:04:00,
2013-02-18 11:08:00,68.2,60.3,30.04,SSW,213,4.0,14.0,76,0.00,,---,0.00,97.00,VWS V14.01,2013-02-18 17:08:00,
2013-02-18 11:09:00,68.1,60.3,30.04,SSE,152,5.0,14.0,76,0.00,,---,0.00,56.00,VWS V14.01,2013-02-18 17:09:00,
2013-02-18 11:13:00,68.1,59.9,30.04,ESE,103,8.0,14.0,75,0.00,,---,0.00,120.00,VWS V14.01,2013-02-18 17:13:00,
2013-02-18 11:14:00,68.2,60.3,30.04,SSW,207,2.0,14.0,76,0.00,,---,0.00,192.00,VWS V14.01,2013-02-18 17:14:00,
2013-02-18 11:18:00,68.5,60.3,30.04,SSE,158,5.0,14.0,75,0.00,,---,0.00,132.00,VWS V14.01,2013-02-18 17:18:00,
2013-02-18 11:20:00,68.6,60.4,30.04,East,80,5.0,14.0,75,0.00,,---,0.00,135.00,VWS V14.01,2013-02-18 17:20:00,
2013-02-18 11:24:00,68.7,60.5,30.04,SE,136,7.0,14.0,75,0.00,,---,0.00,114.00,VWS V14.01,2013-02-18 17:24:00,
2013-02-18 11:25:00,68.7,60.5,30.04,SE,143,4.0,14.0,75,0.00,,---,0.00,104.00,VWS V14.01,2013-02-18 17:25:00,
2013-02-18 11:29:00,68.7,60.5,30.03,South,169,2.0,14.0,75,0.00,,---,0.00,176.00,VWS V14.01,2013-02-18 17:29:00,
2013-02-18 11:30:00,68.8,60.6,30.03,SSW,204,6.0,6.0,75,0.00,,---,0.00,169.00,VWS V14.01,2013-02-18 17:30:00,
2013-02-18 11:36:00,69.0,60.8,30.03,SE,124,4.0,12.0,75,0.00,,---,0.00,193.00,VWS V14.01,2013-02-18 17:36:00,
2013-02-18 11:37:00,69.1,60.8,30.03,SSE,149,4.0,12.0,75,0.00,,---,0.00,229.00,VWS V14.01,2013-02-18 17:37:00,
2013-02-18 11:41:00,69.5,60.9,30.02,SE,132,3.0,12.0,74,0.00,,---,0.00,167.00,VWS V14.01,2013-02-18 17:41:00,
2013-02-18 11:42:00,69.4,61.1,30.02,SSE,163,6.0,12.0,75,0.00,,---,0.00,167.00,VWS V14.01,2013-02-18 17:42:00,
2013-02-18 11:45:00,69.4,61.1,30.02,SSW,201,3.0,12.0,75,0.00,,---,0.00,190.00,VWS V14.01,2013-02-18 17:45:00,
2013-02-18 11:46:00,69.4,61.1,30.02,SSE,148,3.0,12.0,75,0.00,,---,0.00,190.00,VWS V14.01,2013-02-18 17:46:00,
2013-02-18 11:47:00,69.5,61.2,30.02,SSE,149,5.0,12.0,75,0.00,,---,0.00,174.00,VWS V14.01,2013-02-18 17:47:00,
2013-02-18 11:51:00,69.3,61.0,30.02,SSW,197,6.0,12.0,75,0.00,,---,0.00,181.00,VWS V14.01,2013-02-18 17:51:00,
2013-02-18 11:52:00,69.2,61.0,30.02,SSE,165,6.0,12.0,75,0.00,,---,0.00,183.00,VWS V14.01,2013-02-18 17:52:00,
2013-02-18 11:58:00,69.3,61.0,30.01,SE,126,3.0,15.0,75,0.00,,---,0.00,176.00,VWS V14.01,2013-02-18 17:58:00,
2013-02-18 12:00:00,69.2,61.0,30.01,SE,141,6.0,15.0,75,0.00,,---,0.00,199.00,VWS V14.01,2013-02-18 18:00:00,
2013-02-18 12:02:00,69.3,61.0,30.01,South,181,6.0,13.0,75,0.00,,---,0.00,188.00,VWS V14.01,2013-02-18 18:02:00,
2013-02-18 12:03:00,69.3,61.0,30.01,South,169,9.0,13.0,75,0.00,,---,0.00,174.00,VWS V14.01,2013-02-18 18:03:00,
2013-02-18 12:05:00,69.3,61.0,30.01,SSE,150,6.0,13.0,75,0.00,,---,0.00,229.00,VWS V14.01,2013-02-18 18:05:00,
2013-02-18 12:09:00,69.6,61.7,30.00,South,171,5.0,15.0,76,0.00,,---,0.00,299.00,VWS V14.01,2013-02-18 18:09:00,
2013-02-18 12:10:00,69.8,61.5,30.00,SSE,156,8.0,15.0,75,0.00,,---,0.00,369.00,VWS V14.01,2013-02-18 18:10:00,
2013-02-18 12:11:00,69.9,61.6,30.00,South,182,2.0,15.0,75,0.00,,---,0.00,373.00,VWS V14.01,2013-02-18 18:11:00,
2013-02-18 12:14:00,70.4,61.7,30.00,ESE,121,3.0,15.0,74,0.00,,---,0.00,156.00,VWS V14.01,2013-02-18 18:14:00,
2013-02-18 12:15:00,70.3,61.6,30.00,SSE,156,0.0,15.0,74,0.00,,---,0.00,153.00,VWS V14.01,2013-02-18 18:15:00,
2013-02-18 12:19:00,70.1,61.0,29.99,South,182,7.0,16.0,73,0.00,,---,0.00,225.00,VWS V14.01,2013-02-18 18:19:00,
2013-02-18 12:20:00,70.1,61.0,29.99,SSE,162,10.0,16.0,73,0.00,,---,0.00,348.00,VWS V14.01,2013-02-18 18:20:00,
2013-02-18 12:22:00,70.2,61.2,29.99,SSE,153,5.0,16.0,73,0.00,,---,0.00,204.00,VWS V14.01,2013-02-18 18:22:00,
2013-02-18 12:24:00,70.3,61.2,29.99,ESE,115,7.0,16.0,73,0.00,,---,0.00,236.00,VWS V14.01,2013-02-18 18:24:00,
2013-02-18 12:27:00,70.4,61.3,29.99,SSE,159,3.0,16.0,73,0.00,,---,0.00,236.00,VWS V14.01,2013-02-18 18:27:00,
2013-02-18 12:28:00,70.3,61.2,29.99,ESE,118,5.0,17.0,73,0.00,,---,0.00,281.00,VWS V14.01,2013-02-18 18:28:00,
2013-02-18 12:29:00,70.4,61.3,29.98,SSE,147,3.0,17.0,73,0.00,,---,0.00,329.00,VWS V14.01,2013-02-18 18:29:00,
2013-02-18 12:30:00,70.4,61.3,29.98,SSE,147,3.0,17.0,73,0.00,,---,0.00,329.00,VWS V14.01,2013-02-18 18:30:00,
2013-02-18 12:33:00,70.5,61.4,29.98,SSE,161,4.0,13.0,73,0.00,,---,0.00,171.00,VWS V14.01,2013-02-18 18:33:00,
2013-02-18 12:35:00,70.5,61.4,29.99,SSE,163,2.0,13.0,73,0.00,,---,0.00,174.00,VWS V14.01,2013-02-18 18:35:00,
2013-02-18 12:40:00,70.3,61.2,29.98,SE,146,10.0,18.0,73,0.00,,---,0.00,176.00,VWS V14.01,2013-02-18 18:40:00,
2013-02-18 12:41:00,70.3,61.2,29.98,SE,134,8.0,18.0,73,0.00,,---,0.00,172.00,VWS V14.01,2013-02-18 18:41:00,
2013-02-18 12:43:00,70.3,61.2,29.97,SSE,157,6.0,18.0,73,0.00,,---,0.00,183.00,VWS V14.01,2013-02-18 18:43:00,
2013-02-18 12:45:00,70.3,61.6,29.97,SSW,193,0.0,18.0,74,0.00,,---,0.00,160.00,VWS V14.01,2013-02-18 18:45:00,
2013-02-18 12:47:00,70.3,61.2,29.97,SSE,153,6.0,18.0,73,0.00,,---,0.00,176.00,VWS V14.01,2013-02-18 18:47:00,
2013-02-18 12:51:00,70.3,61.6,29.97,SSE,157,0.0,18.0,74,0.00,,---,0.00,134.00,VWS V14.01,2013-02-18 18:51:00,
2013-02-18 12:52:00,70.3,61.6,29.96,SE,135,6.0,18.0,74,0.00,,---,0.00,90.00,VWS V14.01,2013-02-18 18:52:00,
2013-02-18 12:56:00,70.2,61.5,29.96,South,179,8.0,18.0,74,0.00,,---,0.00,67.00,VWS V14.01,2013-02-18 18:56:00,
2013-02-18 12:58:00,70.0,61.3,29.96,SSE,157,2.0,18.0,74,0.00,,---,0.00,97.00,VWS V14.01,2013-02-18 18:58:00,
2013-02-18 12:59:00,69.9,61.6,29.95,South,174,3.0,18.0,75,0.00,,---,0.00,118.00,VWS V14.01,2013-02-18 18:59:00,
2013-02-18 13:00:00,69.8,61.5,29.95,SSE,153,4.0,18.0,75,0.00,,---,0.00,144.00,VWS V14.01,2013-02-18 19:00:00,
2013-02-18 13:02:00,69.4,61.9,29.95,SE,140,7.0,9.0,77,0.00,,---,0.00,162.00,VWS V14.01,2013-02-18 19:02:00,
2013-02-18 13:04:00,69.3,61.8,29.95,SSW,202,4.0,9.0,77,0.00,,---,0.00,86.00,VWS V14.01,2013-02-18 19:04:00,
2013-02-18 13:07:00,69.3,61.4,29.95,ESE,109,0.0,17.0,76,0.00,,---,0.00,158.00,VWS V14.01,2013-02-18 19:07:00,
2013-02-18 13:10:00,69.6,61.7,29.95,SE,130,8.0,17.0,76,0.00,,---,0.00,183.00,VWS V14.01,2013-02-18 19:10:00,
2013-02-18 13:13:00,69.9,62.0,29.95,SE,136,2.0,17.0,76,0.00,,---,0.00,230.00,VWS V14.01,2013-02-18 19:13:00,
2013-02-18 13:14:00,69.9,62.0,29.95,SE,134,5.0,17.0,76,0.00,,---,0.00,232.00,VWS V14.01,2013-02-18 19:14:00,
2013-02-18 13:18:00,70.4,62.1,29.94,SE,129,2.0,17.0,75,0.00,,---,0.00,174.00,VWS V14.01,2013-02-18 19:18:00,
2013-02-18 13:21:00,70.4,61.7,29.94,SSW,207,7.0,17.0,74,0.00,,---,0.00,169.00,VWS V14.01,2013-02-18 19:21:00,
2013-02-18 13:23:00,70.3,61.6,29.94,SE,145,4.0,17.0,74,0.00,,---,0.00,158.00,VWS V14.01,2013-02-18 19:23:00,
2013-02-18 13:26:00,70.1,61.8,29.94,SSE,155,4.0,17.0,75,0.00,,---,0.00,121.00,VWS V14.01,2013-02-18 19:26:00,
2013-02-18 13:30:00,69.6,61.7,29.94,South,180,6.0,17.0,76,0.00,,---,0.00,95.00,VWS V14.01,2013-02-18 19:30:00,
2013-02-18 13:32:00,69.4,61.5,29.94,SSE,165,7.0,13.0,76,0.00,,---,0.00,104.00,VWS V14.01,2013-02-18 19:32:00,
2013-02-18 13:33:00,69.3,61.8,29.94,SE,132,5.0,14.0,77,0.00,,---,0.00,156.00,VWS V14.01,2013-02-18 19:33:00,
2013-02-18 13:37:00,69.1,61.6,29.94,SE,130,0.0,14.0,77,0.00,,---,0.00,114.00,VWS V14.01,2013-02-18 19:37:00,
2013-02-18 13:39:00,69.1,62.0,29.94,SE,138,2.0,14.0,78,0.00,,---,0.00,111.00,VWS V14.01,2013-02-18 19:39:00,
2013-02-18 13:40:00,69.2,61.7,29.93,SE,133,5.0,14.0,77,0.00,,---,0.00,95.00,VWS V14.01,2013-02-18 19:40:00,
2013-02-18 13:42:00,69.2,61.7,29.93,SE,128,5.0,14.0,77,0.00,,---,0.00,72.00,VWS V14.01,2013-02-18 19:42:00,
2013-02-18 13:44:00,69.2,61.7,29.93,SE,146,3.0,14.0,77,0.00,,---,0.00,53.00,VWS V14.01,2013-02-18 19:44:00,
2013-02-18 13:48:00,69.2,61.7,29.93,SSE,163,2.0,14.0,77,0.00,,---,0.00,42.00,VWS V14.01,2013-02-18 19:48:00,
2013-02-18 13:49:00,69.2,61.7,29.93,SE,140,2.0,14.0,77,0.00,,---,0.00,51.00,VWS V14.01,2013-02-18 19:49:00,
2013-02-18 13:54:00,69.1,61.6,29.93,SSE,150,3.0,14.0,77,0.00,,---,0.00,39.00,VWS V14.01,2013-02-18 19:54:00,
2013-02-18 13:55:00,69.1,61.6,29.92,ESE,118,3.0,14.0,77,0.00,,---,0.00,44.00,VWS V14.01,2013-02-18 19:55:00,
2013-02-18 13:58:00,69.0,61.9,29.92,South,190,3.0,14.0,78,0.00,,---,0.00,26.00,VWS V14.01,2013-02-18 19:58:00,
2013-02-18 13:59:00,68.9,61.8,29.92,SSE,157,3.0,14.0,78,0.00,,---,0.00,26.00,VWS V14.01,2013-02-18 19:59:00,
2013-02-18 14:00:00,68.8,61.7,29.92,SE,134,4.0,7.0,78,0.00,,---,0.00,44.00,VWS V14.01,2013-02-18 20:00:00,
2013-02-18 14:04:00,68.6,61.8,29.92,ESE,115,2.0,9.0,79,0.00,,---,0.00,40.00,VWS V14.01,2013-02-18 20:04:00,
2013-02-18 14:06:00,68.6,61.8,29.92,SSE,159,2.0,9.0,79,0.00,,---,0.00,32.00,VWS V14.01,2013-02-18 20:06:00,
2013-02-18 14:10:00,68.4,62.0,29.92,SE,133,7.0,9.0,80,0.01,,---,0.01,23.00,VWS V14.01,2013-02-18 20:10:00,
2013-02-18 14:11:00,68.3,61.9,29.92,SSE,148,3.0,9.0,80,0.01,,---,0.01,26.00,VWS V14.01,2013-02-18 20:11:00,
2013-02-18 14:16:00,67.8,61.8,29.92,SSE,154,0.0,12.0,81,0.01,,---,0.01,16.00,VWS V14.01,2013-02-18 20:16:00,
2013-02-18 14:22:00,67.6,61.9,29.92,SSE,151,4.0,12.0,82,0.01,,---,0.01,26.00,VWS V14.01,2013-02-18 20:22:00,
2013-02-18 14:24:00,67.5,61.8,29.92,SSE,162,6.0,12.0,82,0.01,,---,0.01,32.00,VWS V14.01,2013-02-18 20:24:00,
2013-02-18 14:25:00,67.5,61.8,29.92,SE,130,6.0,12.0,82,0.01,,---,0.01,33.00,VWS V14.01,2013-02-18 20:25:00,
2013-02-18 14:27:00,67.5,61.8,29.92,South,175,1.0,12.0,82,0.01,,---,0.01,25.00,VWS V14.01,2013-02-18 20:27:00,
2013-02-18 14:30:00,67.5,61.8,29.91,SSE,148,6.0,9.0,82,0.01,,---,0.01,23.00,VWS V14.01,2013-02-18 20:30:00,
2013-02-18 14:35:00,67.6,61.6,29.90,SSE,152,8.0,15.0,81,0.01,,---,0.01,77.00,VWS V14.01,2013-02-18 20:35:00,
2013-02-18 14:39:00,67.8,61.8,29.90,ESE,123,7.0,15.0,81,0.01,,---,0.01,62.00,VWS V14.01,2013-02-18 20:39:00,
2013-02-18 14:40:00,67.9,61.9,29.90,SSE,151,3.0,15.0,81,0.01,,---,0.01,46.00,VWS V14.01,2013-02-18 20:40:00,
2013-02-18 14:41:00,67.9,61.9,29.90,East,92,10.0,15.0,81,0.01,,---,0.01,49.00,VWS V14.01,2013-02-18 20:41:00,
2013-02-18 14:45:00,68.1,61.7,29.90,South,188,7.0,15.0,80,0.01,,---,0.01,40.00,VWS V14.01,2013-02-18 20:45:00,
2013-02-18 14:46:00,68.2,61.8,29.90,SSE,157,16.0,16.0,80,0.01,,---,0.01,32.00,VWS V14.01,2013-02-18 20:46:00,
2013-02-18 14:51:00,68.4,61.6,29.90,SSE,158,2.0,16.0,79,0.01,,---,0.01,18.00,VWS V14.01,2013-02-18 20:51:00,
2013-02-18 14:54:00,68.4,62.0,29.89,SSE,162,3.0,16.0,80,0.01,,---,0.01,25.00,VWS V14.01,2013-02-18 20:54:00,
2013-02-18 14:56:00,68.3,62.2,29.90,SSE,163,5.0,16.0,81,0.01,,---,0.01,21.00,VWS V14.01,2013-02-18 20:56:00,
2013-02-18 14:57:00,68.2,62.2,29.90,South,179,6.0,16.0,81,0.01,,---,0.01,21.00,VWS V14.01,2013-02-18 20:57:00,
2013-02-18 14:59:00,68.0,62.3,29.89,SSE,157,5.0,5.0,82,0.01,,---,0.01,23.00,VWS V14.01,2013-02-18 20:59:00,
2013-02-18 15:00:00,68.0,62.3,29.89,SSE,155,5.0,16.0,82,0.01,,---,0.01,23.00,VWS V14.01,2013-02-18 21:00:00,
2013-02-18 15:02:00,67.8,62.1,29.90,ESE,109,3.0,9.0,82,0.01,,---,0.01,18.00,VWS V14.01,2013-02-18 21:02:00,
2013-02-18 15:10:00,67.1,62.8,29.91,NE,44,0.0,12.0,86,0.06,,---,0.06,7.00,VWS V14.01,2013-02-18 21:10:00,
2013-02-18 15:13:00,66.8,62.5,29.90,NE,44,0.0,12.0,86,0.06,,---,0.06,5.00,VWS V14.01,2013-02-18 21:13:00,
2013-02-18 15:15:00,66.7,62.7,29.89,NE,34,2.0,12.0,87,0.06,,---,0.06,7.00,VWS V14.01,2013-02-18 21:15:00,
2013-02-18 15:16:00,66.6,62.6,29.88,NE,34,3.0,12.0,87,0.06,,---,0.06,7.00,VWS V14.01,2013-02-18 21:16:00,
2013-02-18 15:20:00,66.3,62.6,29.86,SSE,150,0.0,12.0,88,0.06,,---,0.06,7.00,VWS V14.01,2013-02-18 21:20:00,
2013-02-18 15:21:00,66.3,62.6,29.86,SSE,167,3.0,12.0,88,0.06,,---,0.06,5.00,VWS V14.01,2013-02-18 21:21:00,
2013-02-18 15:22:00,66.1,62.5,29.88,SW,221,3.0,12.0,88,0.06,,---,0.06,5.00,VWS V14.01,2013-02-18 21:22:00,
2013-02-18 15:26:00,65.5,62.2,29.90,SSW,213,1.0,12.0,89,0.07,,---,0.07,5.00,VWS V14.01,2013-02-18 21:26:00,
2013-02-18 15:30:00,65.1,62.1,29.90,SSE,167,3.0,12.0,90,0.10,,---,0.10,7.00,VWS V14.01,2013-02-18 21:30:00,
2013-02-18 15:31:00,64.9,62.2,29.90,SW,218,4.0,5.0,91,0.10,,---,0.11,9.00,VWS V14.01,2013-02-18 21:31:00,
2013-02-18 15:36:00,64.7,62.0,29.90,West,261,0.0,6.0,91,0.11,,---,0.12,32.00,VWS V14.01,2013-02-18 21:36:00,
2013-02-18 15:39:00,64.6,62.2,29.90,West,261,0.0,6.0,92,0.13,,---,0.14,51.00,VWS V14.01,2013-02-18 21:39:00,
2013-02-18 15:41:00,64.6,62.2,29.90,West,261,0.0,6.0,92,0.14,,---,0.15,70.00,VWS V14.01,2013-02-18 21:41:00,
2013-02-18 15:42:00,64.5,62.1,29.90,West,261,0.0,6.0,92,0.14,,---,0.15,51.00,VWS V14.01,2013-02-18 21:42:00,
2013-02-18 15:46:00,64.5,62.4,29.90,South,173,0.0,6.0,93,0.18,,---,0.19,37.00,VWS V14.01,2013-02-18 21:46:00,
2013-02-18 15:47:00,64.5,62.4,29.90,South,173,0.0,6.0,93,0.18,,---,0.19,37.00,VWS V14.01,2013-02-18 21:47:00,
2013-02-18 15:49:00,64.5,62.4,29.90,SSW,211,2.0,6.0,93,0.19,,---,0.20,32.00,VWS V14.01,2013-02-18 21:49:00,
2013-02-18 15:52:00,64.5,62.4,29.91,SSE,155,1.0,6.0,93,0.20,,---,0.21,18.00,VWS V14.01,2013-02-18 21:52:00,
2013-02-18 16:00:00,64.5,62.4,29.91,SE,132,1.0,6.0,93,0.33,,---,0.34,18.00,VWS V14.01,2013-02-18 22:00:00,
2013-02-18 16:01:00,64.5,62.4,29.91,SE,132,0.0,2.0,93,0.36,,---,0.37,28.00,VWS V14.01,2013-02-18 22:01:00,
2013-02-18 16:08:00,64.4,62.6,29.92,SE,133,0.0,3.0,94,0.39,,---,0.40,25.00,VWS V14.01,2013-02-18 22:08:00,
2013-02-18 16:13:00,64.5,62.7,29.91,SE,133,1.0,3.0,94,0.47,,---,0.48,77.00,VWS V14.01,2013-02-18 22:13:00,
2013-02-18 16:14:00,64.5,62.7,29.91,SE,133,1.0,3.0,94,0.47,,---,0.48,77.00,VWS V14.01,2013-02-18 22:14:00,
2013-02-18 16:19:00,64.5,62.7,29.92,ESE,103,1.0,6.0,94,0.50,,---,0.51,39.00,VWS V14.01,2013-02-18 22:19:00,
2013-02-18 16:20:00,64.5,62.7,29.92,ESE,103,0.0,6.0,94,0.51,,---,0.52,26.00,VWS V14.01,2013-02-18 22:20:00,
2013-02-18 16:21:00,64.5,62.7,29.92,ESE,103,0.0,6.0,94,0.51,,---,0.52,37.00,VWS V14.01,2013-02-18 22:21:00,
2013-02-18 16:25:00,64.5,62.7,29.91,SW,225,0.0,6.0,94,0.51,,---,0.52,72.00,VWS V14.01,2013-02-18 22:25:00,
2013-02-18 16:27:00,64.5,63.0,29.91,South,185,1.0,7.0,95,0.51,,---,0.52,65.00,VWS V14.01,2013-02-18 22:27:00,
2013-02-18 16:30:00,64.6,63.1,29.91,WSW,254,6.0,7.0,95,0.43,,---,0.53,26.00,VWS V14.01,2013-02-18 22:30:00,
2013-02-18 16:31:00,64.6,63.1,29.91,South,188,4.0,7.0,95,0.43,,---,0.53,26.00,VWS V14.01,2013-02-18 22:31:00,
2013-02-18 16:33:00,64.6,63.1,29.91,South,187,2.0,7.0,95,0.43,,---,0.53,51.00,VWS V14.01,2013-02-18 22:33:00,
2013-02-18 16:36:00,64.7,63.2,29.91,ESE,121,2.0,7.0,95,0.44,,---,0.54,70.00,VWS V14.01,2013-02-18 22:36:00,
2013-02-18 16:40:00,64.7,63.2,29.91,South,175,0.0,7.0,95,0.44,,---,0.54,35.00,VWS V14.01,2013-02-18 22:40:00,
2013-02-18 16:41:00,64.7,63.2,29.91,South,175,0.0,7.0,95,0.44,,---,0.54,23.00,VWS V14.01,2013-02-18 22:41:00,
2013-02-18 16:45:00,64.7,63.2,29.92,SSE,161,1.0,7.0,95,0.44,,---,0.54,25.00,VWS V14.01,2013-02-18 22:45:00,
2013-02-18 16:46:00,64.7,63.2,29.91,SW,216,5.0,7.0,95,0.44,,---,0.54,21.00,VWS V14.01,2013-02-18 22:46:00,
2013-02-18 16:51:00,64.7,63.2,29.92,SSE,154,3.0,7.0,95,0.44,,---,0.54,19.00,VWS V14.01,2013-02-18 22:51:00,
2013-02-18 16:52:00,64.7,63.2,29.92,SSE,156,2.0,7.0,95,0.44,,---,0.54,19.00,VWS V14.01,2013-02-18 22:52:00,
2013-02-18 16:54:00,64.7,63.2,29.92,SE,140,0.0,7.0,95,0.44,,---,0.54,26.00,VWS V14.01,2013-02-18 22:54:00,
2013-02-18 16:59:00,64.7,63.2,29.92,SSW,205,4.0,7.0,95,0.44,,---,0.54,28.00,VWS V14.01,2013-02-18 22:59:00,
2013-02-18 17:00:00,64.7,63.2,29.92,SSW,205,2.0,5.0,95,0.20,,---,0.54,28.00,VWS V14.01,2013-02-18 23:00:00,
2013-02-18 17:01:00,64.7,63.2,29.92,SSW,195,1.0,5.0,95,0.20,,---,0.54,28.00,VWS V14.01,2013-02-18 23:01:00,
2013-02-18 17:05:00,64.7,63.2,29.93,SSW,212,2.0,8.0,95,0.20,,---,0.54,37.00,VWS V14.01,2013-02-18 23:05:00,
2013-02-18 17:06:00,64.7,63.2,29.93,SSW,194,2.0,8.0,95,0.20,,---,0.54,25.00,VWS V14.01,2013-02-18 23:06:00,
2013-02-18 17:07:00,64.7,63.2,29.93,SW,217,0.0,8.0,95,0.20,,---,0.54,25.00,VWS V14.01,2013-02-18 23:07:00,
2013-02-18 17:10:00,64.7,63.2,29.93,SW,217,1.0,8.0,95,0.20,,---,0.54,12.00,VWS V14.01,2013-02-18 23:10:00,
2013-02-18 17:12:00,64.7,63.2,29.93,WSW,238,0.0,8.0,95,0.20,,---,0.54,7.00,VWS V14.01,2013-02-18 23:12:00,
2013-02-18 17:15:00,64.7,63.2,29.92,SE,136,0.0,8.0,95,0.20,,---,0.54,5.00,VWS V14.01,2013-02-18 23:15:00,
2013-02-18 17:18:00,64.7,63.2,29.92,SSE,161,1.0,8.0,95,0.20,,---,0.54,9.00,VWS V14.01,2013-02-18 23:18:00,
2013-02-18 17:21:00,64.7,63.2,29.92,SSE,161,2.0,8.0,95,0.21,,---,0.55,11.00,VWS V14.01,2013-02-18 23:21:00,
2013-02-18 17:23:00,64.7,63.5,29.92,SSW,210,3.0,8.0,96,0.21,,---,0.55,9.00,VWS V14.01,2013-02-18 23:23:00,
2013-02-18 17:24:00,64.7,63.5,29.92,South,179,2.0,8.0,96,0.21,,---,0.55,7.00,VWS V14.01,2013-02-18 23:24:00,
2013-02-18 17:26:00,64.7,63.5,29.92,SSE,150,0.0,8.0,96,0.21,,---,0.55,9.00,VWS V14.01,2013-02-18 23:26:00,
2013-02-18 17:28:00,64.7,63.5,29.92,ESE,110,1.0,8.0,96,0.21,,---,0.55,7.00,VWS V14.01,2013-02-18 23:28:00,
2013-02-18 17:29:00,64.7,63.5,29.92,SSE,167,2.0,8.0,96,0.21,,---,0.55,7.00,VWS V14.01,2013-02-18 23:29:00,
2013-02-18 17:30:00,64.6,63.4,29.92,SSE,167,2.0,8.0,96,0.21,,---,0.55,7.00,VWS V14.01,2013-02-18 23:30:00,
2013-02-18 17:35:00,64.6,63.4,29.92,South,170,0.0,6.0,96,0.10,,---,0.62,0.00,VWS V14.01,2013-02-18 23:35:00,
2013-02-18 17:41:00,64.6,63.4,29.93,SSW,213,0.0,6.0,96,0.14,,---,0.66,0.00,VWS V14.01,2013-02-18 23:41:00,
2013-02-18 17:46:00,64.5,63.3,29.93,SSW,200,0.0,6.0,96,0.16,,---,0.68,0.00,VWS V14.01,2013-02-18 23:46:00,
2013-02-18 17:47:00,64.5,63.3,29.93,SSW,200,1.0,6.0,96,0.16,,---,0.68,0.00,VWS V14.01,2013-02-18 23:47:00,
2013-02-18 17:50:00,64.5,63.3,29.92,South,175,2.0,6.0,96,0.16,,---,0.68,7.00,VWS V14.01,2013-02-18 23:50:00,
2013-02-18 17:52:00,64.5,63.3,29.92,South,175,2.0,6.0,96,0.17,,---,0.69,9.00,VWS V14.01,2013-02-18 23:52:00,
2013-02-18 17:54:00,64.5,63.3,29.92,South,173,3.0,6.0,96,0.17,,---,0.69,12.00,VWS V14.01,2013-02-18 23:54:00,
2013-02-18 17:57:00,64.4,63.2,29.92,South,173,1.0,6.0,96,0.17,,---,0.69,9.00,VWS V14.01,2013-02-18 23:57:00,
2013-02-18 17:58:00,64.4,63.2,29.92,South,173,0.0,6.0,96,0.17,,---,0.69,5.00,VWS V14.01,2013-02-18 23:58:00,
2013-02-18 18:00:00,64.4,63.2,29.92,SSE,166,1.0,3.0,96,0.15,,---,0.69,5.00,VWS V14.01,2013-02-19 00:00:00,
2013-02-18 18:02:00,64.4,63.2,29.92,SSE,161,1.0,5.0,96,0.15,,---,0.69,0.00,VWS V14.01,2013-02-19 00:02:00,
2013-02-18 18:04:00,64.4,63.2,29.92,SSE,161,0.0,5.0,96,0.15,,---,0.69,0.00,VWS V14.01,2013-02-19 00:04:00,
2013-02-18 18:06:00,64.4,63.2,29.93,SSE,165,0.0,5.0,96,0.15,,---,0.69,0.00,VWS V14.01,2013-02-19 00:06:00,
2013-02-18 18:08:00,64.4,63.2,29.92,SW,218,3.0,5.0,96,0.18,,---,0.72,0.00,VWS V14.01,2013-02-19 00:08:00,
2013-02-18 18:09:00,64.4,63.2,29.93,SW,214,0.0,5.0,96,0.19,,---,0.73,0.00,VWS V14.01,2013-02-19 00:09:00,
2013-02-18 18:13:00,64.4,63.2,29.93,SSW,213,2.0,5.0,96,0.19,,---,0.73,0.00,VWS V14.01,2013-02-19 00:13:00,
2013-02-18 18:14:00,64.4,63.2,29.93,SSW,213,1.0,5.0,96,0.19,,---,0.73,0.00,VWS V14.01,2013-02-19 00:14:00,
2013-02-18 18:18:00,64.3,63.1,29.93,SSW,209,2.0,5.0,96,0.19,,---,0.73,0.00,VWS V14.01,2013-02-19 00:18:00,
2013-02-18 18:20:00,64.3,63.1,29.93,SSW,209,2.0,5.0,96,0.19,,---,0.73,0.00,VWS V14.01,2013-02-19 00:20:00,
2013-02-18 18:21:00,64.3,63.1,29.93,SSW,194,0.0,5.0,96,0.19,,---,0.73,0.00,VWS V14.01,2013-02-19 00:21:00,
2013-02-18 18:25:00,64.3,63.1,29.93,SE,129,2.0,5.0,96,0.19,,---,0.73,0.00,VWS V14.01,2013-02-19 00:25:00,
2013-02-18 18:27:00,64.3,63.1,29.93,South,178,2.0,6.0,96,0.19,,---,0.73,0.00,VWS V14.01,2013-02-19 00:27:00,
2013-02-18 18:30:00,64.4,63.2,29.93,SSW,200,0.0,0.0,96,0.18,,---,0.73,0.00,VWS V14.01,2013-02-19 00:30:00,
2013-02-18 18:32:00,64.4,63.2,29.93,SSW,205,1.0,3.0,96,0.18,,---,0.73,0.00,VWS V14.01,2013-02-19 00:32:00,
2013-02-18 18:33:00,64.3,63.1,29.93,SSW,200,2.0,6.0,96,0.18,,---,0.73,0.00,VWS V14.01,2013-02-19 00:33:00,
2013-02-18 18:36:00,64.3,63.1,29.93,SSW,205,3.0,6.0,96,0.18,,---,0.73,0.00,VWS V14.01,2013-02-19 00:36:00,
2013-02-18 18:37:00,64.3,63.1,29.93,South,185,2.0,6.0,96,0.18,,---,0.73,0.00,VWS V14.01,2013-02-19 00:37:00,
2013-02-18 18:42:00,64.2,63.0,29.92,South,185,0.0,6.0,96,0.18,,---,0.73,0.00,VWS V14.01,2013-02-19 00:42:00,
2013-02-18 18:47:00,64.1,62.9,29.93,SSW,199,0.0,6.0,96,0.18,,---,0.73,0.00,VWS V14.01,2013-02-19 00:47:00,
2013-02-18 18:48:00,64.1,62.9,29.93,SSW,199,0.0,6.0,96,0.18,,---,0.73,0.00,VWS V14.01,2013-02-19 00:48:00,
2013-02-18 18:50:00,64.1,62.9,29.93,SSW,199,2.0,6.0,96,0.18,,---,0.73,0.00,VWS V14.01,2013-02-19 00:50:00,
2013-02-18 18:54:00,64.0,62.8,29.93,SSW,210,0.0,6.0,96,0.18,,---,0.73,0.00,VWS V14.01,2013-02-19 00:54:00,
2013-02-18 18:55:00,64.0,62.8,29.94,SSW,209,0.0,6.0,96,0.18,,---,0.73,0.00,VWS V14.01,2013-02-19 00:55:00,
2013-02-18 18:56:00,64.0,62.8,29.94,SSW,210,0.0,6.0,96,0.18,,---,0.73,0.00,VWS V14.01,2013-02-19 00:56:00,
2013-02-18 18:59:00,64.0,62.8,29.94,SSW,210,0.0,6.0,96,0.18,,---,0.73,0.00,VWS V14.01,2013-02-19 00:59:00,
2013-02-18 19:00:00,64.0,62.8,29.94,SSW,210,0.0,0.0,96,0.04,,---,0.73,0.00,VWS V14.01,2013-02-19 01:00:00,
2013-02-18 19:01:00,63.9,62.7,29.94,SSW,210,0.0,0.0,96,0.04,,---,0.73,0.00,VWS V14.01,2013-02-19 01:01:00,
2013-02-18 19:04:00,63.9,62.7,29.94,SSW,210,0.0,0.0,96,0.04,,---,0.73,0.00,VWS V14.01,2013-02-19 01:04:00,
2013-02-18 19:05:00,63.9,62.7,29.94,SSW,210,0.0,0.0,96,0.04,,---,0.73,0.00,VWS V14.01,2013-02-19 01:05:00,
2013-02-18 19:07:00,63.8,62.6,29.94,SSW,209,0.0,0.0,96,0.04,,---,0.73,0.00,VWS V14.01,2013-02-19 01:07:00,
2013-02-18 19:10:00,63.8,62.6,29.94,SSW,210,0.0,0.0,96,0.04,,---,0.73,0.00,VWS V14.01,2013-02-19 01:10:00,
2013-02-18 19:11:00,63.8,62.6,29.94,SSW,210,0.0,0.0,96,0.04,,---,0.73,0.00,VWS V14.01,2013-02-19 01:11:00,
2013-02-18 19:12:00,63.7,62.5,29.94,SSW,210,0.0,0.0,96,0.04,,---,0.73,0.00,VWS V14.01,2013-02-19 01:12:00,
2013-02-18 19:15:00,63.6,62.4,29.94,SSW,210,0.0,1.0,96,0.04,,---,0.73,0.00,VWS V14.01,2013-02-19 01:15:00,
2013-02-18 19:18:00,63.5,62.3,29.94,SSW,210,0.0,1.0,96,0.04,,---,0.73,0.00,VWS V14.01,2013-02-19 01:18:00,
2013-02-18 19:21:00,63.4,62.2,29.94,SSW,210,0.0,1.0,96,0.04,,---,0.73,0.00,VWS V14.01,2013-02-19 01:21:00,
2013-02-18 19:23:00,63.3,62.1,29.94,SSW,210,1.0,1.0,96,0.04,,---,0.73,0.00,VWS V14.01,2013-02-19 01:23:00,
2013-02-18 19:26:00,63.2,62.0,29.94,SSE,155,1.0,2.0,96,0.04,,---,0.73,0.00,VWS V14.01,2013-02-19 01:26:00,
2013-02-18 19:29:00,63.1,61.9,29.94,SSE,155,0.0,2.0,96,0.04,,---,0.73,0.00,VWS V14.01,2013-02-19 01:29:00,
2013-02-18 19:30:00,63.1,61.9,29.94,SSE,155,0.0,0.0,96,0.00,,---,0.73,0.00,VWS V14.01,2013-02-19 01:30:00,
2013-02-18 19:31:00,63.1,61.9,29.94,SSE,155,0.0,0.0,96,0.00,,---,0.73,0.00,VWS V14.01,2013-02-19 01:31:00,
2013-02-18 19:34:00,63.1,61.9,29.94,SSE,155,0.0,0.0,96,0.00,,---,0.73,0.00,VWS V14.01,2013-02-19 01:34:00,
2013-02-18 19:35:00,63.0,61.8,29.94,SSE,155,0.0,0.0,96,0.00,,---,0.73,0.00,VWS V14.01,2013-02-19 01:35:00,
2013-02-18 19:38:00,62.9,61.8,29.94,SSE,155,0.0,2.0,96,0.00,,---,0.73,0.00,VWS V14.01,2013-02-19 01:38:00,
2013-02-18 19:40:00,62.9,61.8,29.95,SSE,155,0.0,2.0,96,0.00,,---,0.73,0.00,VWS V14.01,2013-02-19 01:40:00,
2013-02-18 19:41:00,62.9,61.8,29.95,SSE,155,0.0,2.0,96,0.00,,---,0.73,0.00,VWS V14.01,2013-02-19 01:41:00,
2013-02-18 19:45:00,62.8,61.7,29.95,SSE,155,0.0,2.0,96,0.00,,---,0.73,0.00,VWS V14.01,2013-02-19 01:45:00,
2013-02-18 19:47:00,62.8,61.7,29.95,SSE,155,0.0,2.0,96,0.00,,---,0.73,0.00,VWS V14.01,2013-02-19 01:47:00,
2013-02-18 19:48:00,62.7,61.5,29.95,SSE,155,1.0,2.0,96,0.00,,---,0.73,0.00,VWS V14.01,2013-02-19 01:48:00,
2013-02-18 19:51:00,62.7,61.5,29.95,SSE,155,0.0,2.0,96,0.00,,---,0.73,0.00,VWS V14.01,2013-02-19 01:51:00,
2013-02-18 19:52:00,62.7,61.5,29.95,SSE,155,0.0,2.0,96,0.00,,---,0.73,0.00,VWS V14.01,2013-02-19 01:52:00,
2013-02-18 19:54:00,62.6,61.5,29.95,SSE,155,0.0,2.0,96,0.00,,---,0.73,0.00,VWS V14.01,2013-02-19 01:54:00,
2013-02-18 19:56:00,62.6,61.5,29.95,SSE,155,0.0,2.0,96,0.00,,---,0.73,0.00,VWS V14.01,2013-02-19 01:56:00,
2013-02-18 19:58:00,62.5,61.3,29.95,SSE,155,0.0,2.0,96,0.00,,---,0.73,0.00,VWS V14.01,2013-02-19 01:58:00,
2013-02-18 19:59:00,62.5,61.3,29.95,SSE,155,0.0,2.0,96,0.00,,---,0.73,0.00,VWS V14.01,2013-02-19 01:59:00,
2013-02-18 20:00:00,62.5,61.3,29.95,SSE,155,0.0,2.0,96,0.00,,---,0.73,0.00,VWS V14.01,2013-02-19 02:00:00,
2013-02-18 20:01:00,62.4,61.2,29.95,SSE,155,0.0,1.0,96,0.00,,---,0.73,0.00,VWS V14.01,2013-02-19 02:01:00,
2013-02-18 20:04:00,62.4,61.2,29.95,SSE,155,0.0,1.0,96,0.00,,---,0.73,0.00,VWS V14.01,2013-02-19 02:04:00,
2013-02-18 20:05:00,62.3,61.2,29.95,SSE,155,0.0,1.0,96,0.00,,---,0.73,0.00,VWS V14.01,2013-02-19 02:05:00,
2013-02-18 20:07:00,62.3,61.2,29.95,South,183,0.0,2.0,96,0.00,,---,0.73,0.00,VWS V14.01,2013-02-19 02:07:00,
2013-02-18 20:10:00,62.2,61.0,29.95,South,183,0.0,2.0,96,0.00,,---,0.73,0.00,VWS V14.01,2013-02-19 02:10:00,
2013-02-18 20:12:00,62.2,61.0,29.95,South,183,0.0,2.0,96,0.00,,---,0.73,0.00,VWS V14.01,2013-02-19 02:12:00,
2013-02-18 20:14:00,62.2,61.0,29.95,South,182,0.0,2.0,96,0.00,,---,0.73,0.00,VWS V14.01,2013-02-19 02:14:00,
2013-02-18 20:16:00,62.2,61.0,29.95,South,182,0.0,2.0,96,0.00,,---,0.73,0.00,VWS V14.01,2013-02-19 02:16:00,
2013-02-18 20:17:00,62.2,61.0,29.95,South,183,0.0,2.0,96,0.00,,---,0.73,0.00,VWS V14.01,2013-02-19 02:17:00,
2013-02-18 20:20:00,62.2,61.0,29.95,SSE,159,0.0,2.0,96,0.00,,---,0.73,0.00,VWS V14.01,2013-02-19 02:20:00,
2013-02-18 20:21:00,62.2,61.0,29.95,SSE,159,0.0,2.0,96,0.00,,---,0.73,0.00,VWS V14.01,2013-02-19 02:21:00,
2013-02-18 20:22:00,62.2,61.0,29.95,SSE,159,1.0,2.0,96,0.00,,---,0.73,0.00,VWS V14.01,2013-02-19 02:22:00,
2013-02-18 20:26:00,62.2,61.0,29.95,SE,142,2.0,3.0,96,0.00,,---,0.73,0.00,VWS V14.01,2013-02-19 02:26:00,
2013-02-18 20:28:00,62.3,61.4,29.95,SE,139,1.0,4.0,97,0.00,,---,0.73,0.00,VWS V14.01,2013-02-19 02:28:00,
2013-02-18 20:30:00,62.3,61.4,29.95,SE,139,0.0,4.0,97,0.00,,---,0.73,0.00,VWS V14.01,2013-02-19 02:30:00,
2013-02-18 20:31:00,62.3,61.4,29.95,SE,139,0.0,1.0,97,0.00,,---,0.73,0.00,VWS V14.01,2013-02-19 02:31:00,
2013-02-18 20:32:00,62.3,61.4,29.95,SE,139,0.0,1.0,97,0.00,,---,0.73,0.00,VWS V14.01,2013-02-19 02:32:00,
2013-02-18 20:34:00,62.4,61.5,29.95,SE,139,0.0,1.0,97,0.00,,---,0.73,0.00,VWS V14.01,2013-02-19 02:34:00,
2013-02-18 20:36:00,62.5,61.6,29.95,South,169,0.0,6.0,97,0.00,,---,0.73,0.00,VWS V14.01,2013-02-19 02:36:00,
2013-02-18 20:39:00,62.6,61.7,29.95,South,169,2.0,6.0,97,0.00,,---,0.73,0.00,VWS V14.01,2013-02-19 02:39:00,
2013-02-18 20:42:00,62.8,61.9,29.95,SW,224,0.0,6.0,97,0.00,,---,0.73,0.00,VWS V14.01,2013-02-19 02:42:00,
2013-02-18 20:43:00,62.8,61.9,29.95,SW,224,0.0,6.0,97,0.00,,---,0.73,0.00,VWS V14.01,2013-02-19 02:43:00,
2013-02-18 20:45:00,62.8,61.9,29.95,SSW,205,4.0,6.0,97,0.00,,---,0.73,0.00,VWS V14.01,2013-02-19 02:45:00,
2013-02-18 20:49:00,62.9,62.0,29.95,South,178,2.0,6.0,97,0.00,,---,0.73,0.00,VWS V14.01,2013-02-19 02:49:00,
2013-02-18 20:50:00,62.9,62.0,29.95,South,185,3.0,6.0,97,0.00,,---,0.73,0.00,VWS V14.01,2013-02-19 02:50:00,
2013-02-18 20:52:00,62.9,62.0,29.95,South,185,0.0,6.0,97,0.00,,---,0.73,0.00,VWS V14.01,2013-02-19 02:52:00,
2013-02-18 20:54:00,62.9,62.0,29.95,South,187,2.0,6.0,97,0.00,,---,0.73,0.00,VWS V14.01,2013-02-19 02:54:00,
2013-02-18 20:58:00,62.9,62.0,29.96,SSW,202,3.0,6.0,97,0.00,,---,0.73,0.00,VWS V14.01,2013-02-19 02:58:00,
2013-02-18 21:00:00,63.0,62.1,29.96,SSE,159,1.0,2.0,97,0.00,,---,0.73,0.00,VWS V14.01,2013-02-19 03:00:00,
2013-02-18 21:04:00,63.0,62.1,29.96,South,187,0.0,3.0,97,0.00,,---,0.73,0.00,VWS V14.01,2013-02-19 03:04:00,
2013-02-18 21:06:00,63.0,62.1,29.96,South,184,3.0,5.0,97,0.00,,---,0.73,0.00,VWS V14.01,2013-02-19 03:06:00,
2013-02-18 21:09:00,63.1,62.2,29.96,South,184,0.0,5.0,97,0.00,,---,0.73,0.00,VWS V14.01,2013-02-19 03:09:00,
2013-02-18 21:11:00,63.1,62.2,29.96,South,186,0.0,5.0,97,0.00,,---,0.73,0.00,VWS V14.01,2013-02-19 03:11:00,
2013-02-18 21:13:00,63.1,62.2,29.97,South,186,0.0,5.0,97,0.00,,---,0.73,0.00,VWS V14.01,2013-02-19 03:13:00,
2013-02-18 21:14:00,63.1,62.2,29.97,South,186,0.0,5.0,97,0.00,,---,0.73,0.00,VWS V14.01,2013-02-19 03:14:00,
2013-02-18 21:18:00,63.0,62.1,29.97,South,186,2.0,5.0,97,0.00,,---,0.73,0.00,VWS V14.01,2013-02-19 03:18:00,
2013-02-18 21:21:00,63.0,62.1,29.97,South,186,0.0,5.0,97,0.00,,---,0.73,0.00,VWS V14.01,2013-02-19 03:21:00,
2013-02-18 21:25:00,63.0,62.1,29.97,SSW,192,0.0,5.0,97,0.00,,---,0.73,0.00,VWS V14.01,2013-02-19 03:25:00,
2013-02-18 21:27:00,63.0,62.1,29.97,SSW,207,2.0,5.0,97,0.00,,---,0.73,0.00,VWS V14.01,2013-02-19 03:27:00,
2013-02-18 21:30:00,62.9,62.0,29.98,SSW,209,0.0,0.0,97,0.00,,---,0.73,0.00,VWS V14.01,2013-02-19 03:30:00,
2013-02-18 21:31:00,62.9,62.0,29.98,SSW,210,0.0,0.0,97,0.00,,---,0.73,0.00,VWS V14.01,2013-02-19 03:31:00,
2013-02-18 21:32:00,62.9,62.0,29.98,SSW,210,0.0,0.0,97,0.00,,---,0.73,0.00,VWS V14.01,2013-02-19 03:32:00,
2013-02-18 21:36:00,62.9,62.0,29.98,SSW,209,0.0,1.0,97,0.00,,---,0.73,0.00,VWS V14.01,2013-02-19 03:36:00,
2013-02-18 21:37:00,62.9,62.0,29.98,SSW,209,0.0,1.0,97,0.00,,---,0.73,0.00,VWS V14.01,2013-02-19 03:37:00,
2013-02-18 21:38:00,62.9,62.0,29.98,SW,214,2.0,2.0,97,0.00,,---,0.73,0.00,VWS V14.01,2013-02-19 03:38:00,
2013-02-18 21:41:00,62.9,62.0,29.99,NW,306,4.0,4.0,97,0.00,,---,0.73,0.00,VWS V14.01,2013-02-19 03:41:00,
2013-02-18 21:42:00,62.9,62.0,30.01,NW,316,6.0,7.0,97,0.00,,---,0.73,0.00,VWS V14.01,2013-02-19 03:42:00,
2013-02-18 21:43:00,62.9,62.0,30.02,West,274,11.0,11.0,97,0.00,,---,0.73,0.00,VWS V14.01,2013-02-19 03:43:00,
2013-02-18 21:47:00,62.2,61.0,30.02,WNW,292,5.0,13.0,96,0.00,,---,0.73,0.00,VWS V14.01,2013-02-19 03:47:00,
2013-02-18 21:48:00,62.0,60.8,30.02,WNW,300,6.0,13.0,96,0.01,,---,0.74,0.00,VWS V14.01,2013-02-19 03:48:00,
2013-02-18 21:55:00,59.8,58.7,30.04,NW,324,8.0,20.0,96,0.20,,---,0.93,0.00,VWS V14.01,2013-02-19 03:55:00,
2013-02-18 21:57:00,59.5,58.4,30.04,NNW,327,8.0,20.0,96,0.22,,---,0.95,0.00,VWS V14.01,2013-02-19 03:57:00,
2013-02-18 22:00:00,58.9,57.8,30.04,WNW,284,7.0,20.0,96,0.26,,---,0.99,0.00,VWS V14.01,2013-02-19 04:00:00,
2013-02-18 22:01:00,58.7,57.6,30.04,NW,315,0.0,7.0,96,0.27,,---,1.00,0.00,VWS V14.01,2013-02-19 04:01:00,
2013-02-18 22:02:00,58.5,57.4,30.03,North,360,2.0,7.0,96,0.28,,---,1.01,0.00,VWS V14.01,2013-02-19 04:02:00,
2013-02-18 22:03:00,58.4,57.3,30.03,NNW,346,4.0,7.0,96,0.28,,---,1.01,0.00,VWS V14.01,2013-02-19 04:03:00,
2013-02-18 22:07:00,57.9,56.8,30.04,NW,309,4.0,7.0,96,0.29,,---,1.02,0.00,VWS V14.01,2013-02-19 04:07:00,
2013-02-18 22:08:00,57.9,56.8,30.04,North,355,3.0,7.0,96,0.29,,---,1.02,0.00,VWS V14.01,2013-02-19 04:08:00,
2013-02-18 22:09:00,57.7,56.6,30.04,North,355,0.0,7.0,96,0.29,,---,1.02,0.00,VWS V14.01,2013-02-19 04:09:00,
2013-02-18 22:13:00,57.6,56.5,30.05,North,355,0.0,7.0,96,0.29,,---,1.02,0.00,VWS V14.01,2013-02-19 04:13:00,
2013-02-18 22:18:00,57.3,56.2,30.05,NNW,345,0.0,7.0,96,0.30,,---,1.03,0.00,VWS V14.01,2013-02-19 04:18:00,
2013-02-18 22:19:00,57.3,56.2,30.05,NNW,345,0.0,7.0,96,0.30,,---,1.03,0.00,VWS V14.01,2013-02-19 04:19:00,
2013-02-18 22:24:00,57.2,56.1,30.05,NNW,345,0.0,7.0,96,0.30,,---,1.03,0.00,VWS V14.01,2013-02-19 04:24:00,
2013-02-18 22:25:00,57.2,56.1,30.06,NNW,345,0.0,7.0,96,0.30,,---,1.03,0.00,VWS V14.01,2013-02-19 04:25:00,
2013-02-18 22:29:00,57.0,55.9,30.06,NNW,345,0.0,7.0,96,0.30,,---,1.03,0.00,VWS V14.01,2013-02-19 04:29:00,
2013-02-18 22:30:00,57.0,55.9,30.06,NNW,345,0.0,7.0,96,0.30,,---,1.03,0.00,VWS V14.01,2013-02-19 04:30:00,
2013-02-18 22:31:00,57.0,55.9,30.06,NNW,345,0.0,0.0,96,0.30,,---,1.03,0.00,VWS V14.01,2013-02-19 04:31:00,
2013-02-18 22:34:00,56.9,55.8,30.07,NNW,345,0.0,0.0,96,0.30,,---,1.03,0.00,VWS V14.01,2013-02-19 04:34:00,
2013-02-18 22:37:00,56.8,55.7,30.07,NNW,345,0.0,0.0,96,0.30,,---,1.03,0.00,VWS V14.01,2013-02-19 04:37:00,
2013-02-18 22:39:00,56.8,55.7,30.07,NNW,345,0.0,0.0,96,0.30,,---,1.03,0.00,VWS V14.01,2013-02-19 04:39:00,
2013-02-18 22:40:00,56.8,55.7,30.07,NNW,345,0.0,0.0,96,0.30,,---,1.03,0.00,VWS V14.01,2013-02-19 04:40:00,
2013-02-18 22:43:00,56.8,55.7,30.07,NNW,345,0.0,0.0,96,0.30,,---,1.03,0.00,VWS V14.01,2013-02-19 04:43:00,
2013-02-18 22:45:00,56.7,55.9,30.07,NNW,345,0.0,0.0,97,0.30,,---,1.03,0.00,VWS V14.01,2013-02-19 04:45:00,
2013-02-18 22:46:00,56.7,55.6,30.07,NNW,345,0.0,0.0,96,0.30,,---,1.03,0.00,VWS V14.01,2013-02-19 04:46:00,
2013-02-18 22:48:00,56.7,55.6,30.07,NNW,345,0.0,1.0,96,0.30,,---,1.03,0.00,VWS V14.01,2013-02-19 04:48:00,
2013-02-18 22:51:00,56.6,55.5,30.08,NNW,345,0.0,1.0,96,0.30,,---,1.03,0.00,VWS V14.01,2013-02-19 04:51:00,
2013-02-18 22:54:00,56.5,55.4,30.08,NNW,345,0.0,1.0,96,0.30,,---,1.03,0.00,VWS V14.01,2013-02-19 04:54:00,
2013-02-18 22:57:00,56.4,55.3,30.08,NNW,345,0.0,1.0,96,0.30,,---,1.03,0.00,VWS V14.01,2013-02-19 04:57:00,
2013-02-18 23:00:00,56.4,55.3,30.08,NNW,345,0.0,0.0,96,0.04,,---,1.03,0.00,VWS V14.01,2013-02-19 05:00:00,
2013-02-18 23:05:00,56.3,55.2,30.08,NW,306,1.0,4.0,96,0.04,,---,1.03,0.00,VWS V14.01,2013-02-19 05:05:00,
2013-02-18 23:06:00,56.3,55.2,30.09,NW,306,0.0,4.0,96,0.04,,---,1.03,0.00,VWS V14.01,2013-02-19 05:06:00,
2013-02-18 23:11:00,56.1,55.0,30.09,WNW,295,0.0,4.0,96,0.04,,---,1.03,0.00,VWS V14.01,2013-02-19 05:11:00,
2013-02-18 23:16:00,56.0,54.9,30.09,WNW,295,1.0,4.0,96,0.04,,---,1.03,0.00,VWS V14.01,2013-02-19 05:16:00,
2013-02-18 23:17:00,55.9,54.8,30.09,WNW,295,1.0,4.0,96,0.04,,---,1.03,0.00,VWS V14.01,2013-02-19 05:17:00,
2013-02-18 23:21:00,55.6,54.5,30.09,NW,314,0.0,4.0,96,0.04,,---,1.03,0.00,VWS V14.01,2013-02-19 05:21:00,
2013-02-18 23:22:00,55.6,54.5,30.09,NW,314,0.0,4.0,96,0.04,,---,1.03,0.00,VWS V14.01,2013-02-19 05:22:00,
2013-02-18 23:24:00,55.4,54.3,30.09,NW,314,0.0,4.0,96,0.04,,---,1.03,0.00,VWS V14.01,2013-02-19 05:24:00,
2013-02-18 23:27:00,55.2,54.1,30.09,NW,314,0.0,4.0,96,0.04,,---,1.03,0.00,VWS V14.01,2013-02-19 05:27:00,
2013-02-18 23:29:00,55.1,54.0,30.10,NW,314,0.0,4.0,96,0.04,,---,1.03,0.00,VWS V14.01,2013-02-19 05:29:00,
2013-02-18 23:30:00,55.0,53.9,30.09,NW,314,0.0,0.0,96,0.00,,---,1.03,0.00,VWS V14.01,2013-02-19 05:30:00,
2013-02-18 23:32:00,54.9,53.8,30.10,NW,314,0.0,0.0,96,0.00,,---,1.03,0.00,VWS V14.01,2013-02-19 05:32:00,
2013-02-18 23:34:00,54.8,53.7,30.10,NW,314,0.0,1.0,96,0.00,,---,1.03,0.00,VWS V14.01,2013-02-19 05:34:00,
2013-02-18 23:37:00,54.6,53.5,30.10,NW,314,0.0,1.0,96,0.00,,---,1.03,0.00,VWS V14.01,2013-02-19 05:37:00,
2013-02-18 23:38:00,54.6,53.5,30.10,NW,314,0.0,1.0,96,0.00,,---,1.03,0.00,VWS V14.01,2013-02-19 05:38:00,
2013-02-18 23:39:00,54.5,53.4,30.10,NW,314,0.0,1.0,96,0.00,,---,1.03,0.00,VWS V14.01,2013-02-19 05:39:00,
2013-02-18 23:42:00,54.3,53.2,30.10,NW,314,0.0,1.0,96,0.00,,---,1.03,0.00,VWS V14.01,2013-02-19 05:42:00,
2013-02-18 23:44:00,54.2,53.1,30.10,NW,314,0.0,1.0,96,0.00,,---,1.03,0.00,VWS V14.01,2013-02-19 05:44:00,
2013-02-18 23:47:00,54.0,52.9,30.10,NW,314,0.0,1.0,96,0.00,,---,1.03,0.00,VWS V14.01,2013-02-19 05:47:00,
2013-02-18 23:48:00,54.0,52.9,30.10,NW,314,0.0,1.0,96,0.00,,---,1.03,0.00,VWS V14.01,2013-02-19 05:48:00,
2013-02-18 23:50:00,54.0,52.9,30.10,NW,314,0.0,1.0,96,0.00,,---,1.03,0.00,VWS V14.01,2013-02-19 05:50:00,
2013-02-18 23:53:00,53.7,52.6,30.10,NW,314,0.0,1.0,96,0.00,,---,1.03,0.00,VWS V14.01,2013-02-19 05:53:00,
2013-02-18 23:54:00,53.6,52.5,30.10,NW,314,0.0,1.0,96,0.00,,---,1.03,0.00,VWS V14.01,2013-02-19 05:54:00,
2013-02-18 23:55:00,53.5,52.4,30.10,NW,314,0.0,1.0,96,0.00,,---,1.03,0.00,VWS V14.01,2013-02-19 05:55:00,
2013-02-18 23:58:00,53.3,52.2,30.10,NW,314,0.0,1.0,96,0.00,,---,1.03,0.00,VWS V14.01,2013-02-19 05:58:00,
2013-02-18 23:59:00,53.3,52.2,30.10,NW,314,0.0,1.0,96,0.00,,---,1.03,0.00,VWS V14.01,2013-02-19 05:59:00,